Calls for Service

Disclaimer: This information is not intended to be used as official crime data. This program does not provide information about all crimes, and excludes specific incidents such as sexual assaults and child abuse. The City of Conway Police Department makes every effort to produce and publish current and accurate information. No warranties, expressed or implied, are provided for the data herein, its use, or its interpretation. The services provided are for informational purposes only and should not be relied on for any type of legal action.

Loading calls...
Showing calls from previous 10 days
Call Number Case Number Address Call Time Incident Type
22-0802675 1259 HARRISON ST 2022-08-17 10:53:14.677 SUPPLEMENT REPORT CALL
22-0802673 3715 PRINCE ST 2022-08-17 10:39:55.380 ACCIDENT - PRIVATE PROPERTY
22-0802670 22-0802670 1325 ROBINS ST 2022-08-17 10:22:49.407 THEFT OF PROPERTY
22-0802669 1105 PRAIRIE ST 2022-08-17 10:20:16.373 ATTEMPT TO CONTACT
22-0802664 1610 WESTLAKE DR 2022-08-17 09:24:07.140 ATTEMPT TO CONTACT
22-0802663 1090 SKYLINE DR 2022-08-17 09:20:31.883 THEFT OF VEHICLE
22-0802662 22-0802662 1217 WATKINS ST 2022-08-17 09:14:15.883 THEFT OF PROPERTY
22-0802661 22-0802661 312 SOUTH HAMPTON DR 2022-08-17 09:05:53.007 FOUND PROPERTY
22-0802659 196 RUFUS CIR 2022-08-17 08:41:42.417 ALARM
22-0802658 10 BENTLEY DR 2022-08-17 08:27:12.040 ALARM
22-0802657 22-0802657 265 GREAT FALLS 2022-08-17 08:17:54.087 BREAKING OR ENTERING
22-0802655 1750 VILLAGE COMMONS DR 2022-08-17 08:09:21.590 REPOSSESSION
22-0802653 601 E DAVE WARD DR 2022-08-17 08:02:10.077 CHECK ON THE WELFARE
22-0802651 120 E 6TH ST 2022-08-17 07:53:00.637 CRIMINAL MISCHIEF
22-0802650 1099 S EAST GERMAN LN 2022-08-17 07:52:15.767 ACCIDENT - PROPERTY DAMAGE
22-0802648 22-0802648 1655 S DONAGHEY AV 2022-08-17 07:43:01.120 BURGLARY
22-0802645 1065 CLAYTON ST 2022-08-17 07:29:09.357 ALARM
22-0802644 2115 BROADVIEW AV 2022-08-17 07:03:44.933 THEFT OF PROPERTY
22-0802642 855 SALEM RD 2022-08-17 06:48:56.457 ACCIDENT - PRIVATE PROPERTY
22-0802641 22-0802641 805 AMITY RD 2022-08-17 06:29:10.023 SUSPICIOUS VEHICLE
22-0802638 405 OAK ST 2022-08-17 05:26:46.250 MISSING PERSON
22-0802637 1815 PRINCE ST 2022-08-17 04:49:29.017 SUSPICIOUS PERSON
22-0802632 655 ELSINGER BLVD 2022-08-17 02:30:02.357 RECKLESS DRIVER
22-0802631 2027 WEEMS ST 2022-08-17 02:22:32.597 UNAUTHORIZED USE OF MOTOR VEHICLE
22-0802630 1952 BRUCE ST 2022-08-17 02:17:06.360 ATTEMPT TO CONTACT
22-0802628 1155 SKYLINE DR 2022-08-17 01:38:24.050 VEHICLE TOW
22-0802627 1405 S DONAGHEY AV 2022-08-17 00:41:28.487 ACCIDENT - PRIVATE PROPERTY
22-0802626 820 ELSINGER BLVD 2022-08-17 00:34:44.230 ALARM
22-0802625 22-0802625 1601 HOGAN LN 2022-08-17 00:30:25.503 CRIMINAL MISCHIEF
22-0802624 420 OAK ST 2022-08-17 00:26:21.460 CHECKING VEHICLE
22-0802623 22-0802623 1405 S DONAGHEY AV 2022-08-17 00:22:08.867 INTOXICATED PERSON
22-0802621 2038 SILVER SPRINGS CIR 2022-08-17 00:12:32.237 DISTURBANCE
22-0802617 2115 BROADVIEW AV 2022-08-17 00:01:57.157 SUPPLEMENT REPORT CALL
22-0802615 1601 HOGAN LN 2022-08-16 23:45:48.463 ACCIDENT - PRIVATE PROPERTY
22-0802614 22-0802614 1405 S DONAGHEY AV 2022-08-16 23:45:13.600 BREAKING OR ENTERING
22-0802612 22-0802612 1618 WESTLAKE DR 2022-08-16 23:43:06.210 BATTERY REPORT
22-0802611 1155 SKYLINE DR 2022-08-16 23:34:45.950 VEHICLE TOW
22-0802610 1480 S SALEM RD 2022-08-16 23:23:23.553 STALLED VEHICLE
22-0802608 207 WILLOW ST 2022-08-16 21:52:25.220 TRESPASSING
22-0802606 935 BROWNSTONE DR 2022-08-16 21:20:29.623 SUSPICIOUS PERSON
22-0802605 22-0802605 2115 BROADVIEW AV 2022-08-16 21:18:15.437 BATTERY REPORT
22-0802604 2799 SALEM RD 2022-08-16 21:05:30.537 TRAFFIC PROBLEM-CONTROL
22-0802602 22-0802602 2115 BROADVIEW AV 2022-08-16 20:50:14.287 DISTURBANCE
22-0802600 818 E OAK ST 2022-08-16 20:32:41.540 CHECK ON THE WELFARE
22-0802599 WASHINGTON AV 2022-08-16 20:30:59.547 CHECKING PERSON
22-0802598 1117 E OAK ST 2022-08-16 20:20:00.800 SUPPLEMENT REPORT CALL
22-0802597 22-0802597 1405 S DONAGHEY AV 2022-08-16 20:02:55.640 DOMESTIC DISTURBANCE
22-0802596 22-0802596 603 5TH AV 2022-08-16 19:59:27.843 SHOTS FIRED
22-0802595 300 S DONAGHEY AV 2022-08-16 19:58:13.373 VEHICLE TOW
22-0802594 300 S DONAGHEY AV 2022-08-16 19:56:00.123 VEHICLE TOW
22-0802593 1105 PRAIRIE ST 2022-08-16 19:45:38.023 SUPPLEMENT REPORT CALL
22-0802592 22-0802592 3700 JEANNA DR 2022-08-16 19:32:10.587 ATTEMPT TO CONTACT
22-0802589 1260 S AMITY RD 2022-08-16 19:13:36.067 CHECK ON THE WELFARE
22-0802588 1962 BRUCE ST 2022-08-16 19:08:59.330 TRESPASSING
22-0802586 300 DAVIS ST 2022-08-16 19:04:19.867 LOST CHILD
22-0802585 22-0802585 500 ELSINGER BLVD 2022-08-16 18:57:45.253 SHOPLIFTING
22-0802583 1105 PRAIRIE ST 2022-08-16 18:23:50.300 ATTEMPT TO CONTACT
22-0802582 22-0802582 1065 SKYLINE DR 2022-08-16 18:21:54.710 ATTEMPT TO CONTACT
22-0802581 1500 HARKRIDER ST 2022-08-16 18:14:44.797 ACCIDENT - PROPERTY DAMAGE
22-0802580 2499 JOHN MCCRACKEN DR 2022-08-16 18:13:02.250 ACCIDENT - PROPERTY DAMAGE
22-0802579 601 E DAVE WARD DR 2022-08-16 18:09:19.963 ACCIDENT - PROPERTY DAMAGE
22-0802575 2220 PRINCE ST 2022-08-16 17:48:18.493 STALLED VEHICLE
22-0802574 300 S DONAGHEY AV 2022-08-16 17:22:27.520 VEHICLE TOW
22-0802573 300 S DONAGHEY AV 2022-08-16 17:20:40.090 VEHICLE TOW
22-0802572 22-0802572 2407 BROADVIEW AV 2022-08-16 17:20:24.820 FRAUD
22-0802571 1020 FRONT ST 2022-08-16 17:16:21.673 TRESPASSING
22-0802570 22-0802570 955 SOUTH GERMAN LN 2022-08-16 17:09:01.017 FRAUD
22-0802569 22-0802569 500 SOUTH GERMAN LN 2022-08-16 17:03:16.700 MISDEMEANOR WARRANT SERVICE
22-0802568 22-0802568 810 PARKWAY ST 2022-08-16 16:45:33.490 MISDEMEANOR WARRANT SERVICE
22-0802567 22-0802567 810 PARKWAY ST 2022-08-16 16:45:10.507 MISDEMEANOR WARRANT SERVICE
22-0802566 22-0802566 810 PARKWAY ST 2022-08-16 16:44:58.627 MISDEMEANOR WARRANT SERVICE
22-0802565 22-0802565 810 PARKWAY ST 2022-08-16 16:44:31.500 MISDEMEANOR WARRANT SERVICE
22-0802563 314 ELIZABETH ST 2022-08-16 16:32:25.333 OPEN DOOR/WINDOW/FENCE
22-0802562 421 E OAK ST 2022-08-16 16:31:03.990 ACCIDENT - PROPERTY DAMAGE
22-0802561 22-0802561 3900 DAVE WARD DR 2022-08-16 16:28:56.357 SHOPLIFTING
22-0802560 22-0802560 900 SKYLINE DR 2022-08-16 16:28:06.597 INTOXICATED DRIVER
22-0802559 22-0802559 1620 MIDDLE RD 2022-08-16 16:26:29.270 HARASSMENT
22-0802558 6 BURFORD DR 2022-08-16 16:23:41.793 THEFT OF PROPERTY
22-0802557 124 I40WB 2022-08-16 16:18:21.800 RECKLESS DRIVER
22-0802556 1952 BRUCE ST 2022-08-16 16:13:45.667 TRESPASSING
22-0802555 900 SKYLINE DR 2022-08-16 15:52:04.277 ACCIDENT - PROPERTY DAMAGE
22-0802552 22-0802552 3900 DAVE WARD DR 2022-08-16 15:42:25.273 SHOPLIFTING
22-0802551 22-0802551 2455 DONAGHEY AV 2022-08-16 15:41:19.550 CRIMINAL MISCHIEF
22-0802550 1751 OLD MORRILTON HWY 2022-08-16 15:38:47.863 ACCIDENT - PROPERTY DAMAGE
22-0802549 1526 CLIFTON ST 2022-08-16 15:29:22.710 THEFT OF IDENTITY
22-0802548 580 E DAVE WARD DR 2022-08-16 15:27:51.333 VEHICLE TOW
22-0802547 301 SALEM RD 2022-08-16 15:23:49.743 CHECK ON THE WELFARE
22-0802546 22-0802546 3820 DAVE WARD DR 2022-08-16 15:23:08.443 NO CONTACT ORDER VIOLATION
22-0802545 22-0802545 2270 MEADOWLAKE RD 2022-08-16 15:06:55.717 DOMESTIC DISTURBANCE
22-0802539 1200 THOMAS G WILSON DR 2022-08-16 14:55:07.563 RECKLESS DRIVER
22-0802538 22-0802538 2407 BROADVIEW AV 2022-08-16 14:52:16.350 BREAKING OR ENTERING
22-0802537 22-0802537 1639 DAVIS ST 2022-08-16 14:47:05.913 AGENCY ASSIST
22-0802536 207 WILLOW ST 2022-08-16 14:22:52.873 CIVIL MATTER
22-0802534 1901 E OAK ST 2022-08-16 14:19:50.623 ACCIDENT - PROPERTY DAMAGE
22-0802524 1821 ROBINSON AV 2022-08-16 13:25:34.990 DOMESTIC DISTURBANCE
22-0802522 1730 WYSTERIA LN 2022-08-16 12:40:46.640 DOMESTIC DISTURBANCE
22-0802521 1901 E OAK ST 2022-08-16 12:40:16.833 ACCIDENT - PROPERTY DAMAGE
22-0802519 1102 OLD MORRILTON HWY 2022-08-16 12:24:00.697 ACCIDENT - HIT AND RUN
22-0802518 1230 CLIFTON ST 2022-08-16 12:21:19.110 ATTEMPT TO CONTACT
22-0802517 22-0802517 3230 PEBBLE BEACH DR 2022-08-16 12:20:01.890 DISTURBANCE
22-0802516 2701 DAVE WARD DR 2022-08-16 12:16:58.250 ACCIDENT - PROPERTY DAMAGE
22-0802515 2800 YORK LN 2022-08-16 12:08:22.147 ACCIDENT - PROPERTY DAMAGE
22-0802513 155 FARRIS RD 2022-08-16 11:49:21.190 CHECKING VEHICLE
22-0802512 22-0802512 705 MUSEUM RD 2022-08-16 11:44:49.617 THEFT OF SERVICES
22-0802511 955 SOUTH GERMAN LN 2022-08-16 11:44:32.927 SUPPLEMENT REPORT CALL
22-0802510 22-0802510 2850 COLLEGE AV 2022-08-16 11:42:32.120 FRAUD
22-0802508 22-0802508 2740 PRINCE ST 2022-08-16 11:30:37.953 FRAUD
22-0802506 1055 MORNINGSIDE DR 2022-08-16 11:11:44.543 ALARM - BANK
22-0802504 2022-08-16 11:01:39.210 TRAFFIC LIGHT PROBLEM
22-0802503 3700 DAVE WARD DR 2022-08-16 11:01:13.870 TRAFFIC LIGHT PROBLEM
22-0802500 1751 OLD MORRILTON HWY 2022-08-16 10:46:43.117 TRAFFIC LIGHT PROBLEM
22-0802499 22-0802499 3430 IRBY DR 2022-08-16 10:42:19.717 DISTURBANCE
22-0802498 1730 OLD MILITARY RD 2022-08-16 10:40:10.290 STALLED VEHICLE
22-0802495 22-0802495 1105 PRAIRIE ST 2022-08-16 10:31:49.493 MISDEMEANOR WARRANT SERVICE
22-0802494 22-0802494 1105 PRAIRIE ST 2022-08-16 10:27:14.910 MISDEMEANOR WARRANT SERVICE
22-0802493 22-0802493 1105 PRAIRIE ST 2022-08-16 10:26:39.047 MISDEMEANOR WARRANT SERVICE
22-0802490 500 E OAK ST 2022-08-16 10:14:20.017 ACCIDENT - PROPERTY DAMAGE
22-0802489 1100 E OAK ST 2022-08-16 10:12:33.213 SUPPLEMENT REPORT CALL
22-0802488 2499 MUSEUM RD 2022-08-16 10:01:54.730 STALLED VEHICLE
22-0802487 1905 WEEMS ST 2022-08-16 09:56:19.910 REPOSSESSION
22-0802486 150 E SIEBENMORGEN RD 2022-08-16 09:49:03.093 STALLED VEHICLE
22-0802485 22-0802485 414 OAK ST 2022-08-16 09:47:59.180 FRAUD
22-0802479 2022-08-16 09:08:11.960 RECOVERED PROPERTY
22-0802476 1105 PRAIRIE ST 2022-08-16 08:50:11.010 STALLED VEHICLE
22-0802475 1500 HARKRIDER ST 2022-08-16 08:40:37.007 FIGHT
22-0802474 22-0802474 300 S DONAGHEY AV 2022-08-16 08:28:55.830 FOUND PROPERTY
22-0802473 22-0802473 360 PIPPINPOST DR 2022-08-16 08:26:33.160 BREAKING OR ENTERING
22-0802470 801 S SALEM RD 2022-08-16 08:19:39.137 CITIZEN ASSIST
22-0802468 22-0802468 1515 DAVE WARD DR 2022-08-16 07:58:57.373 CHECKING VEHICLE
22-0802467 2501 DAVE WARD DR 2022-08-16 07:32:46.280 STALLED VEHICLE
22-0802464 22-0802464 955 SOUTH GERMAN LN 2022-08-16 06:31:52.183 THEFT OF PROPERTY
22-0802459 610 GARLAND ST 2022-08-16 05:49:37.807 ALARM
22-0802458 3940 TAILHOOK DR 2022-08-16 05:33:45.030 911 HANGUP CALL
22-0802457 605 SOUTH GERMAN LN 2022-08-16 05:16:37.457 REPOSSESSION
22-0802456 1150 MUSEUM RD 2022-08-16 05:10:55.873 ATTEMPT TO CONTACT
22-0802455 1895 E OAK ST 2022-08-16 03:54:29.140 ATTEMPT TO CONTACT
22-0802454 675 AMITY RD 2022-08-16 02:42:36.880 ALARM
22-0802453 400 S DONAGHEY AV 2022-08-16 02:42:06.783 CHECKING VEHICLE
22-0802451 2501 MEADOWLAKE RD 2022-08-16 01:54:25.837 STALLED VEHICLE
22-0802446 3800 DAVE WARD DR 2022-08-16 01:06:47.440 TRESPASSING
22-0802442 1220 SALEM RD 2022-08-16 00:24:44.780 DOMESTIC DISTURBANCE
22-0802436 1220 SALEM RD 2022-08-15 23:35:33.383 DOMESTIC DISTURBANCE
22-0802434 22-0802434 1000 ROCKWELL DR 2022-08-15 23:25:27.123 CHECKING PERSON
22-0802428 22-0802428 150 SKYLINE DR 2022-08-15 22:53:51.967 CHECKING PERSON
22-0802424 2499 EAST GERMAN LN 2022-08-15 22:24:09.343 CHECK ON THE WELFARE
22-0802422 3250 JW AND PAT BROWN BLVD 2022-08-15 22:00:26.237 ALARM
22-0802419 22-0802419 1805 OTT MEMORIAL BLVD 2022-08-15 21:25:16.747 TRESPASSING
22-0802416 500 SALEM RD 2022-08-15 21:07:25.123 FOUND PROPERTY
22-0802415 22-0802415 1002 E OAK ST 2022-08-15 21:05:04.710 MISDEMEANOR WARRANT SERVICE
22-0802414 1155 SKYLINE DR 2022-08-15 21:04:23.590 TRESPASSING
22-0802411 675 AMITY RD 2022-08-15 20:50:17.077 CHECK ON THE WELFARE
22-0802409 1300 MILL ST 2022-08-15 20:44:23.167 ABANDONED VEHICLE
22-0802408 22-0802408 1760 POINSETTIA DR 2022-08-15 20:43:03.560 RUNAWAY
22-0802407 2901 COLLEGE AV 2022-08-15 20:38:58.623 ACCIDENT - PROPERTY DAMAGE
22-0802405 22-0802405 3900 DAVE WARD DR 2022-08-15 19:53:30.680 BREAKING OR ENTERING
22-0802403 530 S DONAGHEY AV 2022-08-15 19:46:50.620 DISTURBANCE
22-0802402 3605 LOVE LN 2022-08-15 19:27:28.517 ATTEMPT TO CONTACT
22-0802401 1100 S AMITY RD 2022-08-15 19:13:39.110 CHECK ON THE WELFARE
22-0802400 555 COMMERCE RD 2022-08-15 19:11:35.100 ALARM
22-0802397 401 SKYLINE DR 2022-08-15 19:02:56.927 CHECK ON THE WELFARE
22-0802396 22-0802396 2430 SANDERS ST 2022-08-15 19:02:09.990 ATTEMPT TO CONTACT
22-0802395 2114 BROADVIEW AV 2022-08-15 18:56:30.193 RECKLESS DRIVER
22-0802394 22-0802394 2430 SANDERS ST 2022-08-15 18:36:46.553 THEFT OF PROPERTY
22-0802392 3715 PRINCE ST 2022-08-15 18:18:18.020 ATTEMPT TO CONTACT
22-0802389 1622 BRUCE ST 2022-08-15 18:03:29.317 CHECK ON THE WELFARE
22-0802387 600 5TH AV 2022-08-15 17:50:27.727 CHECK ON THE WELFARE
22-0802386 1895 E OAK ST 2022-08-15 17:40:35.207 CHECK ON THE WELFARE
22-0802384 2100 MEADOWLAKE RD 2022-08-15 17:30:52.827 ACCIDENT - PROPERTY DAMAGE
22-0802383 1500 BRUCE ST 2022-08-15 17:24:04.620 STALLED VEHICLE
22-0802382 1751 OLD MORRILTON HWY 2022-08-15 17:20:54.853 ACCIDENT - HIT AND RUN
22-0802380 1090 SKYLINE DR 2022-08-15 17:08:52.850 ATTEMPT TO CONTACT
22-0802379 1533 BRUCE ST 2022-08-15 16:56:45.563 ACCIDENT - PROPERTY DAMAGE
22-0802378 3715 PRINCE ST 2022-08-15 16:52:42.057 ATTEMPT TO CONTACT
22-0802377 22-0802377 545 E DAVE WARD DR 2022-08-15 16:40:23.877 THEFT OF PROPERTY
22-0802376 35 WASSON RD 2022-08-15 16:38:25.220 ACCIDENT - PROPERTY DAMAGE
22-0802375 1655 RADEN ST 2022-08-15 15:56:30.127 HARASSING COMMUNICATIONS
22-0802374 22-0802374 1355 S HARKRIDER DR 2022-08-15 15:42:57.750 BATTERY REPORT
22-0802373 1405 S DONAGHEY AV 2022-08-15 15:37:59.863 CHECK ON THE WELFARE
22-0802370 1201 EXCHANGE AV 2022-08-15 15:15:25.890 SUPPLEMENT REPORT CALL
22-0802369 701 REEDY RD 2022-08-15 15:13:20.167 ATTEMPT TO CONTACT
22-0802368 1701 HARKRIDER ST 2022-08-15 15:08:18.740 RECKLESS DRIVER
22-0802367 1014 MAIN ST 2022-08-15 15:08:06.417 CIVIL MATTER
22-0802364 410 6TH ST 2022-08-15 15:01:28.483 ACCIDENT - PROPERTY DAMAGE
22-0802363 22-0802363 207 WILLOW ST 2022-08-15 14:40:48.563 TERRORISTIC THREATENING
22-0802362 609 4TH AV 2022-08-15 14:40:10.773 CIVIL MATTER
22-0802361 22-0802361 500 ELSINGER BLVD 2022-08-15 14:26:42.250 SHOPLIFTING
22-0802360 22-0802360 1269 HARRISON ST 2022-08-15 14:24:59.383 THEFT OF IDENTITY
22-0802359 855 SALEM RD 2022-08-15 14:24:17.330 SUPPLEMENT REPORT CALL
22-0802358 715 FRONT ST 2022-08-15 14:11:43.653 ACCIDENT - PRIVATE PROPERTY
22-0802357 1371 GARVIN AV 2022-08-15 14:04:23.030 FRAUD
22-0802356 1655 RADEN ST 2022-08-15 14:02:12.747 TRESPASSING
22-0802355 3820 DAVE WARD DR 2022-08-15 14:01:17.240 CHECK ON THE WELFARE
22-0802353 1305 DAVE WARD DR 2022-08-15 13:52:37.530 CITIZEN ASSIST
22-0802352 22-0802352 7 VALLEY CV 2022-08-15 13:48:22.590 THEFT OF PROPERTY
22-0802351 22-0802351 810 PARKWAY ST 2022-08-15 13:42:36.220 MISDEMEANOR WARRANT SERVICE
22-0802350 22-0802350 810 PARKWAY ST 2022-08-15 13:42:20.397 MISDEMEANOR WARRANT SERVICE
22-0802349 22-0802349 810 PARKWAY ST 2022-08-15 13:41:57.393 MISDEMEANOR WARRANT SERVICE
22-0802348 2905 CELIA DR 2022-08-15 13:37:20.050 ALARM
22-0802347 225 ROBINS ST 2022-08-15 13:35:11.590 TRESPASSING
22-0802345 1615 E OAK ST 2022-08-15 13:25:13.397 ATTEMPT TO CONTACT
22-0802343 22-0802343 475 ROBINS ST 2022-08-15 13:15:23.903 FIGHT
22-0802340 900 SKYLINE DR 2022-08-15 12:45:04.410 ATTEMPT TO CONTACT
22-0802337 1902 FLORENCE MATTISON DR 2022-08-15 12:41:56.127 ALARM
22-0802336 475 ROBINS ST 2022-08-15 12:39:21.443 ACCIDENT - PEDESTRIAN
22-0802334 2210 GETTY DR 2022-08-15 12:32:56.037 ALARM
22-0802332 1600 E OAK ST 2022-08-15 12:23:42.210 CHECK ON THE WELFARE
22-0802330 22-0802330 328 MITCHELL ST 2022-08-15 12:21:01.830 SUPPLEMENT REPORT CALL
22-0802328 1300 E DAVE WARD DR 2022-08-15 12:17:02.463 SUPPLEMENT REPORT CALL
22-0802325 815 E OAK ST 2022-08-15 12:00:57.057 TRESPASSING
22-0802324 2299 DAVE WARD DR 2022-08-15 11:59:46.670 STALLED VEHICLE
22-0802322 1105 PRAIRIE ST 2022-08-15 11:48:27.393 ATTEMPT TO CONTACT
22-0802321 22-0802321 3715 PRINCE ST 2022-08-15 11:47:02.233 THEFT OF VEHICLE
22-0802320 802 6TH ST 2022-08-15 11:42:00.227 DISTURBANCE
22-0802309 1025 O'KEEFE AV 2022-08-15 10:57:40.517 ATTEMPT TO CONTACT
22-0802308 701 REEDY RD 2022-08-15 10:55:37.527 CIVIL MATTER
22-0802305 1500 WINTERBROOK DR 2022-08-15 10:42:38.963 ALARM
22-0802303 950 CRAIN DR 2022-08-15 10:19:47.860 ACCIDENT - PROPERTY DAMAGE
22-0802301 1275 EXCHANGE AV 2022-08-15 10:08:22.160 CHECK ON THE WELFARE
22-0802300 1001 SALEM RD 2022-08-15 10:02:10.110 ACCIDENT - PROPERTY DAMAGE
22-0802295 3060 PEBBLE BEACH DR 2022-08-15 09:42:04.390 AGENCY ASSIST
22-0802294 801 ELSINGER BLVD 2022-08-15 09:40:31.143 ACCIDENT - PRIVATE PROPERTY
22-0802292 22-0802292 2730 DAVE WARD DR 2022-08-15 09:36:11.490 THEFT OF PROPERTY
22-0802290 2125 HARKRIDER ST 2022-08-15 09:24:43.763 SUPPLEMENT REPORT CALL
22-0802287 22-0802287 3900 DAVE WARD DR 2022-08-15 09:10:55.367 SHOPLIFTING
22-0802285 22-0802285 3815 DONNELL RIDGE RD 2022-08-15 09:06:20.790 CITIZEN ASSIST
22-0802284 1 SKYLINE DR 2022-08-15 08:49:58.787 RECKLESS DRIVER
22-0802283 1615 E OAK ST 2022-08-15 08:48:27.593 ATTEMPT TO CONTACT
22-0802281 22-0802281 1300 S AMITY RD 2022-08-15 08:40:35.877 THEFT OF VEHICLE
22-0802280 22-0802280 2535 DONAGHEY AV 2022-08-15 08:32:52.117 BURGLARY
22-0802278 2645 DONAGHEY AV 2022-08-15 08:09:53.430 CHECK ON THE WELFARE
22-0802277 810 4TH AV 2022-08-15 08:07:56.000 ALARM
22-0802275 2255 STURGIS RD 2022-08-15 07:57:11.647 THEFT OF PROPERTY
22-0802274 22-0802274 1740 JACKSON DR 2022-08-15 07:46:48.353 THEFT OF PROPERTY
22-0802273 22-0802273 1105 DAVE WARD DR 2022-08-15 07:46:20.970 ATTEMPT TO CONTACT
22-0802272 1025 O'KEEFE AV 2022-08-15 07:42:42.997 SUPPLEMENT REPORT CALL
22-0802271 1300 S AMITY RD 2022-08-15 07:38:40.080 THEFT OF PROPERTY
22-0802270 1750 VILLAGE COMMONS DR 2022-08-15 07:29:59.343 ATTEMPT TO CONTACT
22-0802267 680 MUSEUM RD 2022-08-15 06:37:33.307 ALARM
22-0802265 1775 OLD MORRILTON HWY 2022-08-15 06:03:05.203 FIRE DEPT ASSIST
22-0802259 416 INGRAM ST 2022-08-15 05:33:23.610 SUSPICIOUS PERSON
22-0802257 1930 KEATHLEY DR 2022-08-15 04:48:12.820 SUSPICIOUS VEHICLE
22-0802256 1 WASSON RD 2022-08-15 04:35:23.577 ACCIDENT - PROPERTY DAMAGE
22-0802255 1900 HOGAN LN 2022-08-15 04:20:06.040 SUSPICIOUS PERSON
22-0802252 911 S HARKRIDER DR 2022-08-15 03:43:53.187 CHECK ON THE WELFARE
22-0802251 608 OAK ST 2022-08-15 03:05:21.350 CHECKING PERSON
22-0802250 825 OAK ST 2022-08-15 02:51:33.877 CHECKING VEHICLE
22-0802248 1001 MCNUTT RD 2022-08-15 02:22:42.893 CHECK ON THE WELFARE
22-0802247 2050 DAVE WARD DR 2022-08-15 02:21:55.473 CHECK ON THE WELFARE
22-0802246 522 MERRIMAN ST 2022-08-15 02:21:02.190 ALARM
22-0802245 463 LOWER RIDGE RD 2022-08-15 00:31:34.560 SUSPICIOUS VEHICLE
22-0802244 3950 NEWCASTLE DR 2022-08-15 00:26:55.510 LOUD NOISE-MUSIC
22-0802243 2455 DONAGHEY AV 2022-08-15 00:23:04.557 SUSPICIOUS PERSON
22-0802242 22-0802242 220 E OAK ST 2022-08-15 00:18:19.937 INTOXICATED DRIVER
22-0802241 1155 SKYLINE DR 2022-08-15 00:11:29.480 VEHICLE TOW
22-0802239 150 HOGAN LN 2022-08-14 23:32:23.877 LOG VEHICLE
22-0802237 3130 DAVE WARD DR 2022-08-14 23:01:01.780 LOG VEHICLE
22-0802235 2840 DAVE WARD DR 2022-08-14 22:50:31.483 TERRORISTIC THREATENING
22-0802234 2100 FAVRE LN 2022-08-14 22:40:54.890 CHECK ON THE WELFARE
22-0802233 1722 BRUCE ST 2022-08-14 22:36:17.060 MISSING PERSON
22-0802232 2010 RICH SMITH LN 2022-08-14 22:34:14.757 SUPPLEMENT REPORT CALL
22-0802230 2235 E OAK ST 2022-08-14 22:29:45.340 CHECK ON THE WELFARE
22-0802229 23 BRIERWOOD CIR 2022-08-14 22:29:23.903 SUSPICIOUS PERSON
22-0802227 1701 HAIRSTON AV 2022-08-14 22:02:59.853 SUSPICIOUS PERSON
22-0802224 1258 EAST GERMAN LN 2022-08-14 21:59:10.807 STALLED VEHICLE
22-0802223 1100 MAIN ST 2022-08-14 21:18:45.397 CHECKING PERSON
22-0802221 1090 SKYLINE DR 2022-08-14 20:47:19.890 CHECK ON THE WELFARE
22-0802219 1775 OLD MORRILTON HWY 2022-08-14 20:34:10.650 STALLED VEHICLE
22-0802218 1100 S AMITY RD 2022-08-14 20:27:06.017 ACCIDENT - PROPERTY DAMAGE
22-0802217 1105 PRAIRIE ST 2022-08-14 20:14:44.307 STALLED VEHICLE
22-0802216 22-0802216 3050 PEBBLE BEACH DR 2022-08-14 20:05:46.100 THEFT OF PROPERTY
22-0802215 22-0802215 1710 HAIRSTON AV 2022-08-14 20:04:33.543 INTOXICATED DRIVER
22-0802211 1620 MIDDLE RD 2022-08-14 19:57:56.883 HARASSMENT
22-0802210 2840 DAVE WARD DR 2022-08-14 19:24:31.060 DISTURBANCE
22-0802209 1930 ROBINSON AV 2022-08-14 19:16:22.830 CHECK ON THE WELFARE
22-0802207 22-0802207 1700 MUSEUM RD 2022-08-14 19:07:53.527 FORGERY
22-0802205 475 ROBINS ST 2022-08-14 18:37:01.973 SUPPLEMENT REPORT CALL
22-0802204 22-0802204 1700 MUSEUM RD 2022-08-14 17:47:14.117 BREAKING OR ENTERING
22-0802203 1614 WESTLAKE DR 2022-08-14 17:41:44.790 LOUD NOISE-MUSIC
22-0802201 129 I40EB 2022-08-14 17:27:40.617 RECKLESS DRIVER
22-0802199 1500 HAIRSTON AV 2022-08-14 17:05:13.290 ACCIDENT - PERSONAL INJURY
22-0802198 1500 HARKRIDER ST 2022-08-14 16:58:34.363 VEHICLE TOW
22-0802196 801 ELSINGER BLVD 2022-08-14 16:38:21.273 CHECK ON THE WELFARE
22-0802192 22-0802192 325 S MITCHELL ST 2022-08-14 16:26:43.800 FORGERY
22-0802191 22-0802191 801 LOCUST AV 2022-08-14 16:24:33.833 INTERFERENCE WITH CUSTODY
22-0802190 2100 DAVE WARD DR 2022-08-14 16:10:37.903 ACCIDENT - PROPERTY DAMAGE
22-0802189 1600 WASHINGTON AV 2022-08-14 16:05:43.850 CHECK ON THE WELFARE
22-0802187 818 E OAK ST 2022-08-14 15:47:23.620 ACCIDENT - PERSONAL INJURY
22-0802185 22-0802185 1250 S AMITY RD 2022-08-14 15:39:47.143 PROPERTY DAMAGE
22-0802184 22-0802184 1112 GUM ST 2022-08-14 15:17:25.077 ASSAULT
22-0802183 200 S HARKRIDER DR 2022-08-14 15:14:35.170 CHECKING PERSON
22-0802182 301 HELEN ST 2022-08-14 15:09:38.483 ACCIDENT - PRIVATE PROPERTY
22-0802180 3034 DONNELL RIDGE RD 2022-08-14 14:54:27.077 DOMESTIC DISTURBANCE
22-0802179 1250 S AMITY RD 2022-08-14 14:52:56.313 ROAD RAGE
22-0802178 240 S MITCHELL ST 2022-08-14 14:45:42.527 ATTEMPT TO CONTACT
22-0802177 1526 HARDY ST 2022-08-14 14:41:43.493 SUPPLEMENT REPORT CALL
22-0802175 825 WOODARD DR 2022-08-14 14:26:02.373 TRESPASSING
22-0802172 442 HELEN ST 2022-08-14 14:19:00.363 ATTEMPT TO CONTACT
22-0802171 1225 FRONT ST 2022-08-14 14:00:19.123 ALARM
22-0802170 401 2ND ST 2022-08-14 13:59:46.747 CHECK ON THE WELFARE
22-0802169 2400 PARKWOOD DR 2022-08-14 13:50:15.413 ATTEMPT TO CONTACT
22-0802165 1266 S AMITY RD 2022-08-14 13:23:27.897 ACCIDENT - PRIVATE PROPERTY
22-0802164 1100 WINFIELD ST 2022-08-14 13:16:17.877 CHECK ON THE WELFARE
22-0802163 1520 CHERRY BARK DR 2022-08-14 13:06:55.460 ATTEMPT TO CONTACT
22-0802162 1225 FRONT ST 2022-08-14 13:02:17.497 ALARM
22-0802161 3250 JW AND PAT BROWN BLVD 2022-08-14 12:52:06.207 ALARM
22-0802158 22-0802158 2370 SANDERS ST 2022-08-14 12:36:04.030 DOMESTIC DISTURBANCE
22-0802157 1000 E SIEBENMORGEN RD 2022-08-14 12:34:28.427 ALARM
22-0802156 22-0802156 1105 SKYLINE DR 2022-08-14 12:32:13.973 PROPERTY DAMAGE
22-0802153 2018 SIMMS ST 2022-08-14 12:13:23.540 VEHICLE TOW
22-0802150 22-0802150 2107 TYLER ST 2022-08-14 12:05:54.517 CRIMINAL MISCHIEF
22-0802149 1135 SKYLINE DR 2022-08-14 11:57:29.973 TRESPASSING
22-0802148 1101 MARKHAM ST 2022-08-14 11:53:36.420 HARASSMENT
22-0802147 2400 PARKWOOD DR 2022-08-14 11:07:00.030 HARASSING COMMUNICATIONS
22-0802146 22-0802146 442 HELEN ST 2022-08-14 10:55:14.633 BATTERY REPORT
22-0802144 401 SKYLINE DR 2022-08-14 10:44:46.020 ACCIDENT - PROPERTY DAMAGE
22-0802143 1151 MARKHAM ST 2022-08-14 10:43:44.173 SUPPLEMENT REPORT CALL
22-0802140 22-0802140 3125 EGGMAN LN 2022-08-14 10:07:33.840 CIVIL MATTER
22-0802139 100 FARRIS RD 2022-08-14 10:01:51.613 STALLED VEHICLE
22-0802138 2018 SIMMS ST 2022-08-14 09:58:59.690 PARKING VIOLATION
22-0802134 1701 HAIRSTON AV 2022-08-14 08:27:23.270 DOMESTIC DISTURBANCE
22-0802131 1526 HARDY ST 2022-08-14 07:40:28.877 ATTEMPT TO CONTACT
22-0802130 2407 PARKWOOD DR 2022-08-14 07:16:10.443 CITIZEN ASSIST
22-0802128 1895 E OAK ST 2022-08-14 06:26:21.270 TRESPASSING
22-0802127 22-0802127 1610 ROHAN CIR 2022-08-14 06:04:17.283 THEFT OF VEHICLE
22-0802126 22-0802126 1405 S DONAGHEY AV 2022-08-14 05:44:23.367 MISDEMEANOR WARRANT SERVICE
22-0802125 2018 SIMMS ST 2022-08-14 05:24:44.160 PARKING VIOLATION
22-0802124 22-0802124 1405 S DONAGHEY AV 2022-08-14 05:06:22.990 FIRE DEPT ASSIST
22-0802122 1136 ASH ST 2022-08-14 04:37:30.040 AGENCY ASSIST
22-0802120 1405 S DONAGHEY AV 2022-08-14 04:24:59.423 ACCIDENT - PRIVATE PROPERTY
22-0802119 1225 FRONT ST 2022-08-14 04:12:12.640 ALARM
22-0802118 150 S HOGAN LN 2022-08-14 04:06:23.790 CHECKING VEHICLE
22-0802117 401 2ND ST 2022-08-14 03:14:40.617 BREAKING OR ENTERING
22-0802116 1225 FRONT ST 2022-08-14 03:13:32.983 ALARM
22-0802115 22-0802115 1520 CHERRY BARK DR 2022-08-14 02:53:43.000 BATTERY REPORT
22-0802114 3065 PEBBLE BEACH DR 2022-08-14 02:19:15.993 LOUD NOISE-MUSIC
22-0802113 1225 FRONT ST 2022-08-14 02:16:40.530 ALARM
22-0802111 2501 DAVE WARD DR 2022-08-14 02:12:02.353 RECKLESS DRIVER
22-0802110 1201 OLD MORRILTON HWY 2022-08-14 02:00:59.373 TRESPASSING
22-0802109 814 PINE ST 2022-08-14 01:58:56.827 SUSPICIOUS PERSON
22-0802107 1420 ARAPAHO TRL 2022-08-14 01:28:26.773 LOUD NOISE-MUSIC
22-0802106 2050 E OAK ST 2022-08-14 01:26:12.253 CHECK ON THE WELFARE
22-0802103 710 S HARKRIDER DR 2022-08-14 00:53:02.637 LOG VEHICLE
22-0802102 1202 CLIFTON ST 2022-08-14 00:36:37.110 LOUD NOISE-MUSIC
22-0802101 2525 DONAGHEY AV 2022-08-14 00:34:11.237 REPOSSESSION
22-0802097 3055 DAVE WARD DR 2022-08-13 23:50:27.270 ALARM
22-0802095 6195 DAVE WARD DR 2022-08-13 23:49:43.970 CHECKING VEHICLE
22-0802094 800 ARTIS LN 2022-08-13 23:25:35.580 LOUD NOISE-MUSIC
22-0802092 21 WESTIN DR 2022-08-13 22:37:07.333 ALARM
22-0802091 133 I40EB 2022-08-13 22:32:37.110 ACCIDENT - PERSONAL INJURY
22-0802088 1154 MITCHELL ST 2022-08-13 22:29:53.907 FIRE DEPT ASSIST
22-0802085 22-0802085 500 SOUTH GERMAN LN 2022-08-13 21:47:57.753 MISDEMEANOR WARRANT SERVICE
22-0802082 502 E 6TH ST 2022-08-13 21:19:32.057 STALLED VEHICLE
22-0802081 1845 APPALACHAIN DR 2022-08-13 21:02:01.817 ACCIDENT - PROPERTY DAMAGE
22-0802078 2100 DAVE WARD DR 2022-08-13 20:56:30.230 RECKLESS DRIVER
22-0802077 2570 HARBELLE DR 2022-08-13 20:55:22.257 ALARM
22-0802076 1105 SKYLINE DR 2022-08-13 20:45:39.653 ATTEMPT TO CONTACT
22-0802065 22-0802065 1155 SKYLINE DR 2022-08-13 19:15:13.847 ACCIDENT - PRIVATE PROPERTY
22-0802062 1622 SCOTT ST 2022-08-13 18:44:38.180 SUSPICIOUS ACTIVITY
22-0802060 475 ROBINS ST 2022-08-13 18:37:44.550 SUPPLEMENT REPORT CALL
22-0802058 1000 ELLIS AV 2022-08-13 18:27:08.230 CITIZEN ASSIST
22-0802057 1001 COUNTRY CLUB RD 2022-08-13 18:25:41.060 RECKLESS DRIVER
22-0802055 1555 EXCHANGE AV 2022-08-13 17:58:01.387 DISTURBANCE
22-0802053 1613 WESTLAKE DR 2022-08-13 16:59:02.127 CRIMINAL MISCHIEF
22-0802052 260 E SKYLINE DR 2022-08-13 16:52:19.230 ANIMAL BITE
22-0802049 201 E OAK ST 2022-08-13 16:09:06.357 DISTURBANCE
22-0802048 1526 HARDY ST 2022-08-13 15:54:50.030 SUPPLEMENT REPORT CALL
22-0802046 815 E OAK ST 2022-08-13 15:23:21.843 ATTEMPT TO CONTACT
22-0802045 217 S CENTER ST 2022-08-13 15:23:11.647 HARASSMENT
22-0802044 2010 RICH SMITH LN 2022-08-13 15:19:51.573 TRESPASSING
22-0802043 467 ELSINGER BLVD 2022-08-13 15:12:29.093 FIRE DEPT ASSIST
22-0802040 22-0802040 509 POLK ST 2022-08-13 15:00:29.640 SUSPICIOUS VEHICLE
22-0802039 2160 HARKRIDER ST 2022-08-13 14:34:11.477 SUSPICIOUS ACTIVITY
22-0802038 22-0802038 1151 MARKHAM ST 2022-08-13 14:29:04.380 CRIMINAL MISCHIEF
22-0802037 2510 PRINCE ST 2022-08-13 14:27:57.773 ACCIDENT - PEDESTRIAN
22-0802036 2799 SALEM RD 2022-08-13 14:25:44.707 RECKLESS DRIVER
22-0802031 3900 DAVE WARD DR 2022-08-13 13:58:35.180 CITIZEN ASSIST
22-0802030 1620 MIDDLE RD 2022-08-13 13:56:40.557 SUPPLEMENT REPORT CALL
22-0802027 272 S CENTER ST 2022-08-13 13:43:09.093 HARASSMENT
22-0802025 2275 MOIX BLVD 2022-08-13 13:33:50.217 DOMESTIC DISTURBANCE
22-0802024 567 LOCUST AV 2022-08-13 13:20:01.593 ALARM
22-0802020 2500 OLD MORRILTON HWY 2022-08-13 12:31:05.367 ACCIDENT - PROPERTY DAMAGE
22-0802018 1526 HARDY ST 2022-08-13 11:46:26.580 SUPPLEMENT REPORT CALL
22-0802017 1620 MULBERRY GROVE LN 2022-08-13 11:39:48.107 FIRE DEPT ASSIST
22-0802013 1310 JOSIE REA ST 2022-08-13 11:18:20.910 CIVIL MATTER
22-0802012 1890 E OAK ST 2022-08-13 11:05:26.377 TERRORISTIC THREATENING
22-0802011 2255 STURGIS RD 2022-08-13 11:01:00.343 ATTEMPT TO CONTACT
22-0802010 22-0802010 815 E OAK ST 2022-08-13 10:50:09.663 DOMESTIC DISTURBANCE
22-0802008 1575 ARDEN LN 2022-08-13 10:36:25.523 ALARM
22-0802006 855 SALEM RD 2022-08-13 09:55:35.867 PARKING VIOLATION
22-0802004 3 OAKDALE DR 2022-08-13 09:16:02.000 ATTEMPT TO CONTACT
22-0801999 2300 HOGAN LN 2022-08-13 07:58:15.420 STALLED VEHICLE
22-0801998 1526 HARDY ST 2022-08-13 07:07:56.893 SUPPLEMENT REPORT CALL
22-0801997 1622 SCOTT ST 2022-08-13 07:07:10.973 CITIZEN ASSIST
22-0801995 835 S DONAGHEY AV 2022-08-13 06:25:18.370 FIRE DEPT ASSIST
22-0801994 1135 SKYLINE DR 2022-08-13 05:26:41.980 TRESPASSING
22-0801992 129 I40WB 2022-08-13 04:57:51.633 ACCIDENT - PERSONAL INJURY
22-0801990 22-0801990 537 2ND AV 2022-08-13 04:22:11.530 SUPPLEMENT REPORT CALL
22-0801989 1002 E OAK ST 2022-08-13 03:54:13.410 FIRE DEPT ASSIST
22-0801986 4555 RIDGEMERE CIR 2022-08-13 03:36:58.013 CHECKING VEHICLE
22-0801983 1002 E OAK ST 2022-08-13 03:25:23.283 ILLEGAL DUMPING
22-0801982 816 HOGAN LN 2022-08-13 03:05:14.757 CHECKING VEHICLE
22-0801980 607 SOUTH GERMAN LN 2022-08-13 02:19:05.970 ALARM
22-0801979 1655 DAVE WARD DR 2022-08-13 02:02:55.710 SUSPICIOUS VEHICLE
22-0801978 1230 ANDREWS DR 2022-08-13 01:58:04.813 SUSPICIOUS ACTIVITY
22-0801977 522 MERRIMAN ST 2022-08-13 01:48:12.397 ALARM
22-0801976 2890 DAVE WARD DR 2022-08-13 01:23:57.690 CHECK ON THE WELFARE
22-0801972 1840 PECAN CREEK DR 2022-08-13 00:34:59.430 DISTURBANCE
22-0801970 1020 FRONT ST 2022-08-13 00:17:23.620 INTOXICATED PERSON
22-0801969 640 ELSINGER BLVD 2022-08-13 00:02:38.730 CHECKING VEHICLE
22-0801968 1155 SKYLINE DR 2022-08-12 23:55:52.607 VEHICLE TOW
22-0801967 1155 SKYLINE DR 2022-08-12 23:54:53.397 VEHICLE TOW
22-0801966 404 S HARKRIDER DR 2022-08-12 23:43:46.513 TRESPASSING
22-0801964 22-0801964 1440 DAVE WARD DR 2022-08-12 23:22:31.450 MISDEMEANOR WARRANT SERVICE
22-0801962 1651 HAIRSTON AV 2022-08-12 23:12:49.397 FIRE DEPT ASSIST
22-0801961 1624 WESTLAKE DR 2022-08-12 23:10:12.657 LOUD NOISE-MUSIC
22-0801959 2835 DAVE WARD DR 2022-08-12 23:01:55.117 CHECKING BUILDING
22-0801956 3750 DAVE WARD DR 2022-08-12 22:45:32.907 SUSPICIOUS PERSON
22-0801953 850 S SALEM RD 2022-08-12 22:23:56.350 SUSPICIOUS ACTIVITY
22-0801952 475 ROBINS ST 2022-08-12 22:21:58.713 DISTURBANCE
22-0801951 2995 DALLAS LP 2022-08-12 21:56:24.953 LOUD NOISE-MUSIC
22-0801950 1620 MIDDLE RD 2022-08-12 21:50:59.990 SUPPLEMENT REPORT CALL
22-0801947 22-0801947 825 CHAPEL HILL DR 2022-08-12 21:24:12.793 MISSING PERSON
22-0801946 401 2ND ST 2022-08-12 21:23:43.203 SUSPICIOUS ACTIVITY
22-0801944 5000 BAY HILL DR 2022-08-12 21:15:56.870 CITY ORDINANCE VIOLATION
22-0801943 3100 IRBY DR 2022-08-12 21:01:44.277 ACCIDENT - PRIVATE PROPERTY
22-0801941 2300 PRINCE ST 2022-08-12 20:36:27.263 SUPPLEMENT REPORT CALL
22-0801940 22-0801940 537 2ND AV 2022-08-12 20:32:20.010 STALKING
22-0801939 5200 JOHN W. ALLISON RD 2022-08-12 20:03:58.910 CITIZEN ASSIST
22-0801938 22-0801938 500 SOUTH GERMAN LN 2022-08-12 20:00:21.890 MISDEMEANOR WARRANT SERVICE
22-0801934 1350 MCKAY AV 2022-08-12 19:33:47.293 FIRE DEPT ASSIST
22-0801931 501 ELSINGER BLVD 2022-08-12 19:26:17.427 RECKLESS DRIVER
22-0801930 22-0801930 1405 S DONAGHEY AV 2022-08-12 19:23:03.213 CRIMINAL MISCHIEF
22-0801929 553 FACTORY ST 2022-08-12 19:22:54.390 DISTURBANCE
22-0801928 22-0801928 1815 OLD MORRILTON HWY 2022-08-12 18:55:59.637 TRESPASSING
22-0801927 1214 CLIFTON ST 2022-08-12 18:49:05.383 CIVIL MATTER
22-0801926 2220 PRINCE ST 2022-08-12 18:46:52.163 ACCIDENT - PRIVATE PROPERTY
22-0801925 1105 PRAIRIE ST 2022-08-12 18:42:48.530 SUPPLEMENT REPORT CALL
22-0801924 2455 WASHINGTON AV 2022-08-12 18:40:51.833 ALARM
22-0801923 2820 PRINCE ST 2022-08-12 18:23:33.247 ACCIDENT - PROPERTY DAMAGE
22-0801920 1555 EXCHANGE AV 2022-08-12 17:50:55.433 SUPPLEMENT REPORT CALL
22-0801919 2270 E OAK ST 2022-08-12 17:46:33.737 ACCIDENT - PROPERTY DAMAGE
22-0801918 1101 OLD MORRILTON HWY 2022-08-12 17:44:48.957 STALLED VEHICLE
22-0801917 2418 JESSICA DR 2022-08-12 17:39:45.600 SUPPLEMENT REPORT CALL
22-0801916 22-0801916 835 S DONAGHEY AV 2022-08-12 17:31:15.987 HARASSMENT
22-0801915 1601 HOGAN LN 2022-08-12 17:29:17.027 ACCIDENT - PRIVATE PROPERTY
22-0801913 375 E OAK ST 2022-08-12 17:13:44.540 BATTERY REPORT
22-0801911 1121 CLIFTON ST 2022-08-12 17:06:01.757 THEFT OF PROPERTY
22-0801909 1212 E OAK ST 2022-08-12 16:57:50.830 ACCIDENT - PERSONAL INJURY
22-0801907 22-0801907 320 S MITCHELL ST 2022-08-12 16:43:55.663 DOMESTIC DISTURBANCE
22-0801906 607 ROBINS ST 2022-08-12 16:40:22.367 TRESPASSING
22-0801905 512 1ST ST 2022-08-12 16:37:12.787 CHECK ON THE WELFARE
22-0801902 501 ELSINGER BLVD 2022-08-12 16:22:15.473 ACCIDENT - PRIVATE PROPERTY
22-0801900 225 ROBINS ST 2022-08-12 16:15:10.953 TRESPASSING
22-0801899 1122 VAN RONKLE ST 2022-08-12 16:11:52.477 ATTEMPT TO CONTACT
22-0801896 2101 COLLEGE AV 2022-08-12 15:56:34.520 STALLED VEHICLE
22-0801893 12 BRADLEY CIR 2022-08-12 15:48:03.300 CHECK ON THE WELFARE
22-0801892 2499 MUSEUM RD 2022-08-12 15:47:57.723 SUSPICIOUS VEHICLE
22-0801891 300 S DONAGHEY AV 2022-08-12 15:41:51.283 ATTEMPT TO CONTACT
22-0801889 22-0801889 1555 EXCHANGE AV 2022-08-12 15:21:04.110 MISSING PERSON
22-0801887 22-0801887 2331 COLLEGE AV 2022-08-12 15:13:34.207 ABUSE
22-0801885 300 S DONAGHEY AV 2022-08-12 15:10:17.763 UNKNOWN TROUBLE
22-0801884 601 ELSINGER BLVD 2022-08-12 14:57:23.257 SUSPICIOUS PERSON
22-0801882 138 OAKLAWN DR 2022-08-12 14:48:05.650 CHECK ON THE WELFARE
22-0801881 1955 KEATHLEY DR 2022-08-12 14:45:54.827 NO CONTACT ORDER VIOLATION
22-0801880 2750 MAKENZIE DR 2022-08-12 14:44:34.887 ATTEMPT TO CONTACT
22-0801878 2270 MEADOWLAKE RD 2022-08-12 14:37:54.400 AGENCY ASSIST
22-0801876 22-0801876 2010 RICH SMITH LN 2022-08-12 14:32:33.213 TRESPASSING
22-0801874 2125 HARKRIDER ST 2022-08-12 14:22:02.680 ACCIDENT - PROPERTY DAMAGE
22-0801873 22-0801873 207 WILLOW ST 2022-08-12 14:20:27.293 SUSPICIOUS VEHICLE
22-0801872 22-0801872 3900 DAVE WARD DR 2022-08-12 14:17:32.357 SHOPLIFTING
22-0801871 2550 PRINCE ST 2022-08-12 14:08:43.680 ATTEMPT TO CONTACT
22-0801870 1526 HARDY ST 2022-08-12 14:07:25.027 SUPPLEMENT REPORT CALL
22-0801869 2510 PRINCE ST 2022-08-12 14:03:59.417 STALLED VEHICLE
22-0801868 2 SOUTH HAMPTON DR 2022-08-12 14:00:25.973 VEHICLE TOW
22-0801864 22-0801864 855 SALEM RD 2022-08-12 13:50:24.757 FRAUD
22-0801863 1400 HARKRIDER ST 2022-08-12 13:38:28.947 SUPPLEMENT REPORT CALL
22-0801861 1675 SWEETSPIRE DR 2022-08-12 13:33:04.980 CHECK ON THE WELFARE
22-0801859 175 E OAK ST 2022-08-12 13:29:08.733 ACCIDENT - PRIVATE PROPERTY
22-0801856 2550 PRINCE ST 2022-08-12 13:05:02.233 CHECKING VEHICLE
22-0801855 22-0801855 1266 S AMITY RD 2022-08-12 12:58:10.470 FOUND PROPERTY
22-0801853 1505 FREYALDENHOVEN LN 2022-08-12 12:47:12.213 CHECK ON THE WELFARE
22-0801850 207 WILLOW ST 2022-08-12 12:43:33.447 ATTEMPT TO CONTACT
22-0801842 22-0801842 245 OAK ST 2022-08-12 12:04:20.830 STALKING
22-0801841 1360 BRUCE ST 2022-08-12 11:57:27.540 ACCIDENT - HIT AND RUN
22-0801839 22-0801839 2105 TYLER ST 2022-08-12 11:48:45.017 CRIMINAL MISCHIEF
22-0801838 3900 DAVE WARD DR 2022-08-12 11:38:29.050 SHOPLIFTING
22-0801835 501 DONAGHEY AV 2022-08-12 11:29:53.743 ACCIDENT - PROPERTY DAMAGE
22-0801834 3900 DAVE WARD DR 2022-08-12 11:26:22.980 CHECKING VEHICLE
22-0801833 22-0801833 2915 DAVE WARD DR 2022-08-12 11:22:00.587 CIVIL MATTER
22-0801831 1215 E OAK ST 2022-08-12 10:54:53.153 ATTEMPT TO CONTACT
22-0801829 22-0801829 34 EVE LN 2022-08-12 10:39:15.457 BREAKING OR ENTERING
22-0801828 10 REBECCA LN 2022-08-12 10:30:34.093 ALARM - HOLD UP or PANIC
22-0801826 207 WILLOW ST 2022-08-12 10:27:55.847 TRESPASSING
22-0801824 1155 SKYLINE DR 2022-08-12 10:07:23.100 ACCIDENT - PRIVATE PROPERTY
22-0801823 300 S DONAGHEY AV 2022-08-12 10:07:07.683 ATTEMPT TO CONTACT
22-0801820 22-0801820 1105 PRAIRIE ST 2022-08-12 09:45:36.503 MISDEMEANOR WARRANT SERVICE
22-0801819 22-0801819 1105 PRAIRIE ST 2022-08-12 09:44:59.287 MISDEMEANOR WARRANT SERVICE
22-0801818 22-0801818 130 HARKRIDER ST 2022-08-12 09:38:23.190 CRIMINAL MISCHIEF
22-0801816 2211 BROADVIEW AV 2022-08-12 09:34:30.363 ATTEMPT TO CONTACT
22-0801812 22-0801812 180 EXCHANGE AV 2022-08-12 09:05:32.493 SUSPICIOUS PERSON
22-0801808 1155 SKYLINE DR 2022-08-12 08:45:14.033 SUPPLEMENT REPORT CALL
22-0801806 22-0801806 1526 HARDY ST 2022-08-12 08:24:21.873 MISSING PERSON
22-0801805 3820 DAVE WARD DR 2022-08-12 08:16:41.910 FIRE DEPT ASSIST
22-0801802 22-0801802 1465 PYRAMID DR 2022-08-12 07:59:30.800 BREAKING OR ENTERING
22-0801801 250 S HARKRIDER DR 2022-08-12 07:59:05.280 CIVIL MATTER
22-0801800 1835 TYLER ST 2022-08-12 07:53:46.043 SUSPICIOUS PERSON
22-0801798 2125 HARKRIDER ST 2022-08-12 07:37:50.007 ACCIDENT - PRIVATE PROPERTY
22-0801795 818 4TH ST 2022-08-12 07:06:18.040 BURGLARY
22-0801794 300 S DONAGHEY AV 2022-08-12 06:39:48.920 TRESPASSING
22-0801788 300 S DONAGHEY AV 2022-08-12 04:17:24.187 TRESPASSING
22-0801787 555 COUNTRY CLUB RD 2022-08-12 04:09:48.337 ALARM
22-0801785 818 E OAK ST 2022-08-12 03:27:58.470 FIGHT
22-0801783 136 EVE LN 2022-08-12 02:22:21.460 SUSPICIOUS PERSON
22-0801782 815 E OAK ST 2022-08-12 02:12:42.307 CHECKING PERSON
22-0801780 1000 E SIEBENMORGEN RD 2022-08-12 01:28:10.447 CHECKING VEHICLE
22-0801778 1020 FRONT ST 2022-08-12 01:06:30.860 DISTURBANCE
22-0801777 1611 E OAK ST 2022-08-12 01:00:20.087 INTOXICATED DRIVER
22-0801775 2420 BROADVIEW AV 2022-08-12 00:45:25.680 CHECKING VEHICLE
22-0801771 2080 BROADVIEW AV 2022-08-12 00:28:32.957 PROWLER
22-0801770 101 OAK ST 2022-08-12 00:11:21.760 ATTEMPT TO CONTACT
22-0801768 475 ROBINS ST 2022-08-11 23:54:12.660 UNKNOWN TROUBLE
22-0801765 22-0801765 475 ROBINS ST 2022-08-11 23:39:53.470 BURGLARY
22-0801762 5 WOODLAWN DR 2022-08-11 23:08:37.397 911 HANGUP CALL
22-0801761 10 LOWER RIDGE RD 2022-08-11 23:06:24.020 CHECKING VEHICLE
22-0801760 2600 DAVE WARD DR 2022-08-11 22:55:59.010 CHECKING VEHICLE
22-0801757 22-0801757 1622 CHERRY ST 2022-08-11 22:31:30.370 DISTURBANCE
22-0801755 501 ELSINGER BLVD 2022-08-11 22:11:58.943 RECKLESS DRIVER
22-0801753 1700 MUSEUM RD 2022-08-11 21:57:04.793 CHECKING VEHICLE
22-0801752 1830 S SALEM RD 2022-08-11 21:53:47.267 DISTURBANCE
22-0801751 2654 TIMBERPEG CT 2022-08-11 21:41:30.627 CHECK ON THE WELFARE
22-0801750 1818 HOGAN LN 2022-08-11 21:28:51.397 PARKING VIOLATION
22-0801749 150 S HOGAN LN 2022-08-11 21:28:09.163 ACCIDENT - PROPERTY DAMAGE
22-0801748 1266 S AMITY RD 2022-08-11 21:28:02.970 SUPPLEMENT REPORT CALL
22-0801746 1010 MAIN ST 2022-08-11 21:26:56.947 CHECKING VEHICLE
22-0801744 1105 PRAIRIE ST 2022-08-11 20:33:19.060 CHECK ON THE WELFARE
22-0801743 1266 S AMITY RD 2022-08-11 20:25:34.020 SHOPLIFTING
22-0801741 1475 HOGAN LN 2022-08-11 20:13:50.130 RECKLESS DRIVER
22-0801740 1917 TORREYSON ST 2022-08-11 19:35:09.193 CIVIL MATTER
22-0801739 265 GREAT FALLS 2022-08-11 19:28:06.830 CIVIL MATTER
22-0801737 1045 JIM'S LN 2022-08-11 19:10:20.260 SUPPLEMENT REPORT CALL
22-0801736 1610 TYLER ST 2022-08-11 18:59:55.533 CHECK ON THE WELFARE
22-0801734 3240 STERMER RD 2022-08-11 18:45:28.323 ATTEMPT TO CONTACT
22-0801733 300 BRUCE ST 2022-08-11 18:33:43.857 VEHICLE TOW
22-0801732 1955 KEATHLEY DR 2022-08-11 18:30:03.880 ACCIDENT - PRIVATE PROPERTY
22-0801730 1750 VILLAGE COMMONS DR 2022-08-11 18:17:50.950 TERRORISTIC THREATENING
22-0801729 22-0801729 2514 W MARTIN ST 2022-08-11 18:13:37.750 LOST CHILD
22-0801727 1955 KEATHLEY DR 2022-08-11 18:07:32.223 DISTURBANCE
22-0801724 22-0801724 1905 RICH SMITH LN 2022-08-11 18:01:27.260 BREAKING OR ENTERING
22-0801722 1045 JIM'S LN 2022-08-11 17:58:26.280 ACCIDENT - PROPERTY DAMAGE
22-0801721 1701 SALEM RD 2022-08-11 17:57:49.610 ACCIDENT - HIT AND RUN
22-0801719 22-0801719 5300 SANSON DR 2022-08-11 17:35:54.137 COMPUTER CRIMES
22-0801716 1500 HARKRIDER ST 2022-08-11 17:19:42.943 TRAFFIC PROBLEM-CONTROL
22-0801715 700 E DAVE WARD DR 2022-08-11 17:15:56.687 STALLED VEHICLE
22-0801714 150 E OAK ST 2022-08-11 17:12:53.783 ACCIDENT - PRIVATE PROPERTY
22-0801713 700 E DAVE WARD DR 2022-08-11 17:11:52.283 CHECK ON THE WELFARE
22-0801712 22-0801712 500 SOUTH GERMAN LN 2022-08-11 17:05:54.953 MISDEMEANOR WARRANT SERVICE
22-0801711 867 FENDLEY DR 2022-08-11 17:01:14.537 SUPPLEMENT REPORT CALL
22-0801710 475 ROBINS ST 2022-08-11 16:58:42.317 COMPUTER CRIMES
22-0801709 22-0801709 2325 TYLER ST 2022-08-11 16:57:13.693 MISDEMEANOR WARRANT SERVICE
22-0801708 22-0801708 1105 PRAIRIE ST 2022-08-11 16:47:43.530 MISDEMEANOR WARRANT SERVICE
22-0801707 1200 COVINGTON WAY 2022-08-11 16:45:22.077 BATTERY REPORT
22-0801706 22-0801706 1570 E OAK ST 2022-08-11 16:41:13.600 THEFT OF PROPERTY
22-0801705 22-0801705 2325 TYLER ST 2022-08-11 16:39:52.443 MISDEMEANOR WARRANT SERVICE
22-0801703 601 E DAVE WARD DR 2022-08-11 16:21:22.247 ACCIDENT - PROPERTY DAMAGE
22-0801702 22-0801702 134 HARKRIDER ST 2022-08-11 16:08:09.313 THEFT OF VEHICLE
22-0801701 2325 TYLER ST 2022-08-11 15:54:31.303 ACCIDENT - PROPERTY DAMAGE
22-0801699 2002 DAVE WARD DR 2022-08-11 15:48:34.910 AGENCY ASSIST
22-0801698 975 RIO GRANDE RD 2022-08-11 15:43:09.200 BURGLARY
22-0801697 815 E OAK ST 2022-08-11 15:39:28.323 ATTEMPT TO CONTACT
22-0801696 22-0801696 1155 SKYLINE DR 2022-08-11 15:19:14.390 SHOPLIFTING
22-0801695 2014 TYLER ST 2022-08-11 15:17:05.913 ACCIDENT - PRIVATE PROPERTY
22-0801693 2255 STURGIS RD 2022-08-11 15:12:35.977 ATTEMPT TO CONTACT
22-0801690 1700 DONAGHEY AV 2022-08-11 15:05:33.633 ACCIDENT - PROPERTY DAMAGE
22-0801689 1300 E DAVE WARD DR 2022-08-11 14:59:33.330 ACCIDENT - PROPERTY DAMAGE
22-0801688 356 FARRIS RD 2022-08-11 14:55:41.900 ATTEMPT TO CONTACT
22-0801685 2890 DAVE WARD DR 2022-08-11 14:36:38.120 ATTEMPT TO CONTACT
22-0801684 2125 HARKRIDER ST 2022-08-11 14:33:30.067 LOST-STOLEN LICENSE PLATE
22-0801683 1600 E OAK ST 2022-08-11 14:28:55.630 ACCIDENT - PRIVATE PROPERTY
22-0801682 1795 BILL LUCY DR 2022-08-11 14:28:36.247 ATTEMPT TO CONTACT
22-0801681 1 CONWAY TOWNE CENTRE DR 2022-08-11 14:25:20.473 RECKLESS DRIVER
22-0801680 22-0801680 10 LOWER RIDGE RD 2022-08-11 14:10:46.040 PROPERTY DAMAGE
22-0801679 356 FARRIS RD 2022-08-11 14:06:26.410 CHECK ON THE WELFARE
22-0801678 475 ROBINS ST 2022-08-11 14:03:53.580 VEHICLE TOW
22-0801677 2215 E OAK ST 2022-08-11 14:02:25.747 ACCIDENT - PRIVATE PROPERTY
22-0801676 22-0801676 1601 S DONAGHEY AV 2022-08-11 13:59:29.193 THEFT OF PROPERTY
22-0801671 129 I40EB 2022-08-11 13:38:00.760 ATTEMPT TO CONTACT
22-0801670 619 3RD ST 2022-08-11 12:55:46.110 TERRORISTIC THREATENING
22-0801669 22-0801669 1601 HOGAN LN 2022-08-11 12:55:17.780 DOMESTIC DISTURBANCE
22-0801667 1000 NEAL ST 2022-08-11 12:42:12.917 ACCIDENT - PROPERTY DAMAGE
22-0801665 22-0801665 375 E OAK ST 2022-08-11 12:39:03.913 CHECKING PERSON
22-0801660 22-0801660 1553 WASHINGTON AV 2022-08-11 12:02:21.037 SUSPICIOUS ACTIVITY
22-0801659 2799 SALEM RD 2022-08-11 11:59:32.923 ROAD RAGE
22-0801658 2260 WILMINGTON DR 2022-08-11 11:48:21.880 FRAUD
22-0801657 2062 SCOTT ST 2022-08-11 11:41:02.113 SUPPLEMENT REPORT CALL
22-0801656 505 OAK ST 2022-08-11 11:40:52.193 DOMESTIC DISTURBANCE
22-0801654 2500 DAVE WARD DR 2022-08-11 11:33:34.240 ACCIDENT - HIT AND RUN
22-0801652 238 ASH ST 2022-08-11 11:27:20.747 CIVIL MATTER
22-0801651 22-0801651 810 PARKWAY ST 2022-08-11 11:21:43.820 MISDEMEANOR WARRANT SERVICE
22-0801650 22-0801650 810 PARKWAY ST 2022-08-11 11:21:08.453 MISDEMEANOR WARRANT SERVICE
22-0801649 22-0801649 1620 MIDDLE RD 2022-08-11 11:13:46.437 CHECK ON THE WELFARE
22-0801647 22-0801647 810 PARKWAY ST 2022-08-11 11:09:22.073 MISDEMEANOR WARRANT SERVICE
22-0801642 22-0801642 810 PARKWAY ST 2022-08-11 10:44:52.953 MISDEMEANOR WARRANT SERVICE
22-0801641 22-0801641 810 PARKWAY ST 2022-08-11 10:42:20.300 MISDEMEANOR WARRANT SERVICE
22-0801640 5110 APRIL DR 2022-08-11 10:30:56.700 ATTEMPT TO CONTACT
22-0801638 1917 COLLEGE AV 2022-08-11 10:26:18.070 CIVIL MATTER
22-0801637 2325 DAVE WARD DR 2022-08-11 10:25:42.603 AGENCY ASSIST
22-0801636 22-0801636 810 PARKWAY ST 2022-08-11 10:21:34.690 MISDEMEANOR WARRANT SERVICE
22-0801635 2455 DONAGHEY AV 2022-08-11 10:03:00.577 CIVIL STAND BY
22-0801634 911 S HARKRIDER DR 2022-08-11 10:02:43.227 RECKLESS DRIVER
22-0801633 650 LOCUST AV 2022-08-11 09:51:51.887 ALARM - HOLD UP or PANIC
22-0801632 22-0801632 1101 COLLEGE AV 2022-08-11 09:48:18.623 MISDEMEANOR WARRANT SERVICE
22-0801631 2500 OLD MORRILTON HWY 2022-08-11 09:46:15.237 ATTEMPT TO CONTACT
22-0801630 238 ASH ST 2022-08-11 09:42:54.700 CIVIL MATTER
22-0801625 200 EXCHANGE AV 2022-08-11 09:29:27.220 FRAUD
22-0801624 22-0801624 208 OLIVER ST 2022-08-11 09:17:22.223 DOMESTIC DISTURBANCE
22-0801623 22-0801623 100 E ROBINS ST 2022-08-11 09:12:03.220 LOST CHILD
22-0801622 810 PARKWAY ST 2022-08-11 09:09:42.027 CHECK ON THE WELFARE
22-0801621 22-0801621 500 MITCHELL ST 2022-08-11 09:09:17.500 AGENCY ASSIST
22-0801618 1090 SKYLINE DR 2022-08-11 08:49:27.780 REPOSSESSION
22-0801617 1101 COLLEGE AV 2022-08-11 08:48:56.933 ACCIDENT - PROPERTY DAMAGE
22-0801615 2235 DAVE WARD DR 2022-08-11 07:43:07.420 ALARM
22-0801614 425 E DAVE WARD DR 2022-08-11 07:29:36.307 ALARM
22-0801609 1815 E OAK ST 2022-08-11 05:06:33.593 ALARM
22-0801607 1405 S DONAGHEY AV 2022-08-11 03:09:25.140 AGENCY ASSIST
22-0801604 1701 HAIRSTON AV 2022-08-11 02:22:07.417 SUSPICIOUS ACTIVITY
22-0801603 530 S DONAGHEY AV 2022-08-11 02:04:29.490 SUSPICIOUS PERSON
22-0801602 3105 PEBBLE BEACH DR 2022-08-11 01:58:52.160 REPOSSESSION
22-0801601 22-0801601 815 E OAK ST 2022-08-11 01:35:13.307 DISTURBANCE
22-0801600 1701 HAIRSTON AV 2022-08-11 01:33:29.563 LOUD NOISE-MUSIC
22-0801597 22-0801597 500 SOUTH GERMAN LN 2022-08-11 00:34:36.187 MISDEMEANOR WARRANT SERVICE
22-0801595 450 E DAVE WARD DR 2022-08-10 23:50:55.507 TRESPASSING
22-0801594 1315 STURGIS RD 2022-08-10 23:28:01.210 BREAKING OR ENTERING
22-0801592 127 I40WB 2022-08-10 23:11:02.293 RECKLESS DRIVER
22-0801587 1305 DAVE WARD DR 2022-08-10 22:28:54.917 ALARM
22-0801586 600 5TH AV 2022-08-10 22:15:34.380 CHECKING VEHICLE
22-0801583 1085 S DONAGHEY AV 2022-08-10 21:56:14.570 UNKNOWN TROUBLE
22-0801582 501 ELSINGER BLVD 2022-08-10 21:53:03.240 RECKLESS DRIVER
22-0801576 425 E DAVE WARD DR 2022-08-10 20:35:03.267 ALARM
22-0801575 540 FACTORY ST 2022-08-10 20:25:11.363 DISTURBANCE
22-0801574 22-0801574 619 3RD ST 2022-08-10 20:24:24.007 DISTURBANCE
22-0801573 1100 BRUCE ST 2022-08-10 20:22:34.717 SUPPLEMENT REPORT CALL
22-0801572 6 MARSHALL CV 2022-08-10 20:18:47.053 SUPPLEMENT REPORT CALL
22-0801568 335 POINTE WEST DR 2022-08-10 20:03:40.413 ACCIDENT - PROPERTY DAMAGE
22-0801567 1001 MCNUTT RD 2022-08-10 19:58:27.207 ATTEMPT TO CONTACT
22-0801566 1821 ROBINSON AV 2022-08-10 19:53:13.217 LOUD NOISE-MUSIC
22-0801565 22-0801565 3960 RUPERT DR 2022-08-10 19:51:22.003 HARASSMENT
22-0801563 2 HONEYSUCKLE LN 2022-08-10 19:27:38.907 INTOXICATED DRIVER
22-0801562 22-0801562 1621 CHERRY ST 2022-08-10 19:21:54.240 CHECK ON THE WELFARE
22-0801561 1701 HAIRSTON AV 2022-08-10 19:17:14.220 SUPPLEMENT REPORT CALL
22-0801559 150 SKYLINE DR 2022-08-10 19:06:11.680 TRAFFIC PROBLEM-CONTROL
22-0801555 955 SOUTH GERMAN LN 2022-08-10 18:43:31.163 DISTURBANCE
22-0801554 801 ELSINGER BLVD 2022-08-10 18:42:09.600 ACCIDENT - PRIVATE PROPERTY
22-0801552 701 REEDY RD 2022-08-10 18:20:46.310 DISCHARGING FIREWORKS
22-0801551 22-0801551 150 E OAK ST 2022-08-10 18:15:39.893 THEFT OF PROPERTY
22-0801549 2280 PLEASANT VALLEY DR 2022-08-10 17:37:49.900 ATTEMPT TO CONTACT
22-0801547 1105 SKYLINE DR 2022-08-10 17:16:25.400 TRESPASSING
22-0801546 3401 SALEM RD 2022-08-10 17:07:03.037 TRAFFIC PROBLEM-CONTROL
22-0801544 22-0801544 3 HOPKINS LN 2022-08-10 16:50:32.767 CHECK ON THE WELFARE
22-0801543 2280 PLEASANT VALLEY DR 2022-08-10 16:48:21.730 TRESPASSING
22-0801541 22-0801541 707 ROBINS ST 2022-08-10 16:45:47.673 THEFT OF PROPERTY
22-0801540 1101 E DAVE WARD DR 2022-08-10 16:38:29.720 THEFT OF VEHICLE
22-0801539 2125 HARKRIDER ST 2022-08-10 16:31:37.857 ACCIDENT - PROPERTY DAMAGE
22-0801538 2302 COLLEGE AV 2022-08-10 16:28:22.457 SUPPLEMENT REPORT CALL
22-0801537 2100 SPRING VALLEY DR 2022-08-10 16:19:14.610 ALARM - HOLD UP or PANIC
22-0801536 2840 DAVE WARD DR 2022-08-10 16:14:17.457 CIVIL MATTER
22-0801535 2080 BROADVIEW AV 2022-08-10 16:08:44.590 FRAUD
22-0801534 22-0801534 2710 PRINCE ST 2022-08-10 16:07:50.953 FORGERY
22-0801533 1900 KEATHLEY DR 2022-08-10 16:01:54.300 ACCIDENT - PROPERTY DAMAGE
22-0801529 22-0801529 2007 CREEKWOOD DR 2022-08-10 15:29:03.957 BATTERY REPORT
22-0801528 300 S DONAGHEY AV 2022-08-10 15:20:25.757 TERRORISTIC THREATENING
22-0801527 500 S EAST GERMAN LN 2022-08-10 15:18:28.030 ACCIDENT - HIT AND RUN
22-0801526 22-0801526 1900 HOGAN LN 2022-08-10 15:00:01.113 BREAKING OR ENTERING
22-0801525 350 SALEM RD 2022-08-10 14:41:56.117 CHECK ON THE WELFARE
22-0801524 427 S ASH ST 2022-08-10 14:36:04.473 BURGLARY
22-0801523 22-0801523 2890 DAVE WARD DR 2022-08-10 14:24:52.117 THEFT OF PROPERTY
22-0801522 620 CHESTNUT ST 2022-08-10 14:24:50.053 SUPPLEMENT REPORT CALL
22-0801521 504 1ST AV 2022-08-10 14:12:26.693 CHECK ON THE WELFARE
22-0801520 22-0801520 2890 DAVE WARD DR 2022-08-10 14:04:16.737 CHECKING VEHICLE
22-0801518 510 SOUTH GERMAN LN 2022-08-10 13:52:39.557 FELONY WARRANT SERVICE
22-0801513 151 SKYLINE DR 2022-08-10 13:12:59.407 ACCIDENT - PROPERTY DAMAGE
22-0801510 22-0801510 1810 AMELIA DR 2022-08-10 12:14:27.637 HARASSING COMMUNICATIONS
22-0801505 22-0801505 6 MARSHALL CV 2022-08-10 11:56:01.913 MISSING PERSON
22-0801504 2670 DONAGHEY AV 2022-08-10 11:48:56.647 SUPPLEMENT REPORT CALL
22-0801503 2890 DAVE WARD DR 2022-08-10 11:44:57.760 CIVIL MATTER
22-0801502 2350 SANDERS ST 2022-08-10 11:44:31.003 AGENCY ASSIST
22-0801501 22-0801501 2350 SANDERS ST 2022-08-10 11:43:54.120 FIRE DEPT ASSIST
22-0801500 1865 PECAN CREEK DR 2022-08-10 11:40:50.983 SUPPLEMENT REPORT CALL
22-0801498 2165 HARKRIDER ST 2022-08-10 11:37:27.747 CHECK ON THE WELFARE
22-0801497 1161 OLD MORRILTON HWY 2022-08-10 11:36:33.420 CHECK ON THE WELFARE
22-0801495 22-0801495 3 HOPKINS LN 2022-08-10 11:29:40.997 FIRE DEPT ASSIST
22-0801489 134 HARKRIDER ST 2022-08-10 11:12:58.977 THEFT OF VEHICLE
22-0801488 1101 FENDLEY DR 2022-08-10 11:11:11.343 SUSPICIOUS ACTIVITY
22-0801483 22-0801483 3225 MARLSGATE DR 2022-08-10 10:28:43.957 PROPERTY DAMAGE
22-0801481 1430 GRAYBEARD DR 2022-08-10 10:13:32.313 SUSPICIOUS ACTIVITY
22-0801480 2280 PLEASANT VALLEY DR 2022-08-10 10:07:18.630 ALARM
22-0801479 2455 DONAGHEY AV 2022-08-10 10:00:01.533 CIVIL STAND BY
22-0801478 440 SAVANNAH PARK CIR 2022-08-10 09:57:28.903 OPEN DOOR/WINDOW/FENCE
22-0801475 22-0801475 225 ROSSLYN CHAPEL DR 2022-08-10 09:51:21.537 THEFT OF IDENTITY
22-0801473 1325 OLD MORRILTON HWY 2022-08-10 09:40:40.410 ACCIDENT - PRIVATE PROPERTY
22-0801472 201 SKYLINE DR 2022-08-10 09:37:46.617 ALARM
22-0801471 1802 COLLEGE AV 2022-08-10 09:29:26.003 ACCIDENT - PROPERTY DAMAGE
22-0801469 1700 MUSEUM RD 2022-08-10 09:13:14.583 CHECK ON THE WELFARE
22-0801468 2350 SANDERS ST 2022-08-10 09:11:13.317 CHECK ON THE WELFARE
22-0801467 2022-08-10 09:06:18.410 ATTEMPT TO CONTACT
22-0801464 1155 SKYLINE DR 2022-08-10 08:50:40.147 ATTEMPT TO CONTACT
22-0801463 704 4TH AV 2022-08-10 08:35:05.360 FIRE DEPT ASSIST
22-0801461 2795 RAZORBACK DR 2022-08-10 08:25:40.710 PARKING VIOLATION
22-0801459 2350 SANDERS ST 2022-08-10 08:14:45.770 FIRE DEPT ASSIST
22-0801458 2280 PLEASANT VALLEY DR 2022-08-10 08:03:12.593 ALARM
22-0801457 2000 SANDERS ST 2022-08-10 07:24:15.200 TRESPASSING
22-0801456 22-0801456 3105 PEBBLE BEACH DR 2022-08-10 07:07:13.690 BREAKING OR ENTERING
22-0801452 400 S AMITY RD 2022-08-10 06:35:47.960 DISTURBANCE
22-0801451 620 ELSINGER BLVD 2022-08-10 06:17:48.257 ALARM
22-0801447 2125 HARKRIDER ST 2022-08-10 05:17:07.710 ALARM
22-0801445 955 SOUTH GERMAN LN 2022-08-10 04:35:32.143 OPEN DOOR/WINDOW/FENCE
22-0801444 500 SOUTH GERMAN LN 2022-08-10 04:12:20.273 FELONY WARRANT SERVICE
22-0801442 22-0801442 1865 PECAN CREEK DR 2022-08-10 02:50:26.033 BURGLARY
22-0801441 620 ELSINGER BLVD 2022-08-10 02:47:59.203 ALARM
22-0801440 1055 STEEL AV 2022-08-10 02:47:25.180 ALARM
22-0801438 600 ELSINGER BLVD 2022-08-10 02:37:47.267 ALARM
22-0801437 150 E OAK ST 2022-08-10 02:36:50.827 ALARM
22-0801436 205 E OAK ST 2022-08-10 02:36:38.323 ALARM - HOLD UP or PANIC
22-0801435 820 ELSINGER BLVD 2022-08-10 02:35:03.563 ALARM
22-0801434 855 AMITY RD 2022-08-10 02:34:58.070 ALARM
22-0801433 22-0801433 4010 MAYTAG DR 2022-08-10 01:39:06.360 CRIMINAL MISCHIEF
22-0801432 2310 ROBINSON AV 2022-08-10 01:26:50.580 CHECKING VEHICLE
22-0801431 22-0801431 1440 DAVE WARD DR 2022-08-10 01:01:54.667 TERRORISTIC THREATENING
22-0801430 646 S HARKRIDER DR 2022-08-10 00:51:40.520 CHECKING VEHICLE
22-0801429 450 E DAVE WARD DR 2022-08-10 00:43:47.507 THEFT OF PROPERTY
22-0801427 800 MUSEUM RD 2022-08-10 00:21:45.790 ALARM
22-0801425 1701 DAVE WARD DR 2022-08-09 23:25:10.753 CHECKING VEHICLE
22-0801420 2017 HAIRSTON AV 2022-08-09 22:54:53.507 SUSPICIOUS PERSON
22-0801416 22-0801416 430 2ND AV 2022-08-09 22:24:30.410 DOMESTIC DISTURBANCE
22-0801415 818 E OAK ST 2022-08-09 22:20:13.503 THEFT OF SERVICES
22-0801414 2010 RICH SMITH LN 2022-08-09 22:05:05.910 PROWLER
22-0801412 2050 DAVE WARD DR 2022-08-09 21:18:54.320 ATTEMPT TO CONTACT
22-0801409 3045 PEBBLE BEACH DR 2022-08-09 20:47:05.573 CITY ORDINANCE VIOLATION
22-0801408 1835 OTT MEMORIAL BLVD 2022-08-09 20:44:34.540 CRIMINAL MISCHIEF
22-0801406 475 ROBINS ST 2022-08-09 20:39:30.387 FOUND PROPERTY
22-0801405 1002 E OAK ST 2022-08-09 20:35:16.443 FIGHT
22-0801399 400 AMITY RD 2022-08-09 19:57:58.347 ACCIDENT - PROPERTY DAMAGE
22-0801393 22-0801393 2550 DONAGHEY AV 2022-08-09 19:13:23.730 SHOPLIFTING
22-0801391 22-0801391 2799 SALEM RD 2022-08-09 18:55:23.300 AGENCY ASSIST
22-0801390 900 ALFORD ST 2022-08-09 18:42:20.453 UNKNOWN TROUBLE
22-0801389 1463 COLLEGE AV 2022-08-09 18:41:02.310 TRAFFIC PROBLEM-CONTROL
22-0801388 2855 KENT LN 2022-08-09 18:39:22.330 PARKING VIOLATION
22-0801386 2570 JAYME CIR 2022-08-09 18:18:27.220 ATTEMPT TO CONTACT
22-0801385 1008 E OAK ST 2022-08-09 18:02:49.940 SUSPICIOUS VEHICLE
22-0801382 1304 EASTFIELD ST 2022-08-09 17:58:49.727 ATTEMPT TO CONTACT
22-0801381 2125 HARKRIDER ST 2022-08-09 17:55:57.490 SUPPLEMENT REPORT CALL
22-0801377 855 SALEM RD 2022-08-09 17:42:23.570 CHECKING VEHICLE
22-0801376 1155 SKYLINE DR 2022-08-09 17:21:45.133 ACCIDENT - PROPERTY DAMAGE
22-0801375 2535 DONAGHEY AV 2022-08-09 17:06:04.853 DOMESTIC DISTURBANCE
22-0801374 1900 HOGAN LN 2022-08-09 17:05:31.330 CIVIL MATTER
22-0801373 1008 E OAK ST 2022-08-09 17:03:34.713 SUSPICIOUS VEHICLE
22-0801372 1200 E DAVE WARD DR 2022-08-09 16:57:58.453 ACCIDENT - PROPERTY DAMAGE
22-0801370 1161 OLD MORRILTON HWY 2022-08-09 16:42:24.817 ACCIDENT - PRIVATE PROPERTY
22-0801369 2535 DONAGHEY AV 2022-08-09 16:35:53.823 THEFT OF PROPERTY
22-0801368 1931 MARTIN ST 2022-08-09 16:26:38.260 ATTEMPT TO CONTACT
22-0801367 22-0801367 407 OAK ST 2022-08-09 16:15:48.193 FOUND PROPERTY
22-0801365 3450 OLD MORRILTON HWY 2022-08-09 16:07:05.210 CHECK ON THE WELFARE
22-0801363 2155 APACHE TRL 2022-08-09 15:59:17.130 THEFT OF PROPERTY
22-0801362 2025 CALDWELL ST 2022-08-09 15:58:35.803 ATTEMPT TO CONTACT
22-0801361 2130 HARKRIDER ST 2022-08-09 15:49:25.297 ACCIDENT - PROPERTY DAMAGE
22-0801360 2323 WASHINGTON AV 2022-08-09 15:46:01.720 RECOVERED VEHICLE
22-0801358 22-0801358 1985 RICH SMITH LN 2022-08-09 15:39:29.520 DOMESTIC DISTURBANCE
22-0801356 125 I40EB 2022-08-09 15:33:53.677 TRAFFIC LIGHT PROBLEM
22-0801355 810 PARKWAY ST 2022-08-09 15:28:33.993 ACCIDENT - PROPERTY DAMAGE
22-0801354 401 2ND ST 2022-08-09 15:25:04.237 ATTEMPT TO CONTACT
22-0801352 1090 SKYLINE DR 2022-08-09 15:05:34.633 ATTEMPT TO CONTACT
22-0801349 22-0801349 855 AMITY RD 2022-08-09 14:40:26.567 THEFT OF PROPERTY
22-0801347 706 S BARIDON ST 2022-08-09 14:25:25.477 FRAUD
22-0801346 1515 DAVE WARD DR 2022-08-09 14:21:01.530 THEFT OF PROPERTY
22-0801344 3 ESSEX DR 2022-08-09 14:17:56.617 ATTEMPT TO CONTACT
22-0801340 475 ROBINS ST 2022-08-09 14:00:14.863 CIVIL STAND BY
22-0801335 475 ROBINS ST 2022-08-09 13:31:31.993 ANIMAL BITE
22-0801333 955 SOUTH GERMAN LN 2022-08-09 13:13:54.357 AGENCY ASSIST
22-0801332 22-0801332 2400 MARKET PLAZA DR 2022-08-09 13:12:46.130 FRAUD
22-0801331 22-0801331 4855 STOCKTON RD 2022-08-09 13:07:23.290 FRAUD
22-0801324 475 ROBINS ST 2022-08-09 12:17:38.017 VEHICLE TOW
22-0801323 1775 OLD MORRILTON HWY 2022-08-09 12:14:29.053 ACCIDENT - PROPERTY DAMAGE
22-0801321 196 KEATH CIR 2022-08-09 12:08:55.490 SUSPICIOUS PERSON
22-0801320 9 GINGER DR 2022-08-09 12:07:45.150 THEFT OF PROPERTY
22-0801319 955 SOUTH GERMAN LN 2022-08-09 12:03:28.760 HARASSMENT
22-0801316 22-0801316 475 ROBINS ST 2022-08-09 11:53:20.857 ABUSE
22-0801312 2799 SALEM RD 2022-08-09 11:31:37.403 RECKLESS DRIVER
22-0801311 1100 BRUCE ST 2022-08-09 11:11:43.810 RECKLESS DRIVER
22-0801309 425 E DAVE WARD DR 2022-08-09 11:08:27.233 SUPPLEMENT REPORT CALL
22-0801308 1600 CENTENNIAL CLUB DR 2022-08-09 10:56:20.063 SUPPLEMENT REPORT CALL
22-0801307 1515 DAVE WARD DR 2022-08-09 10:24:46.833 TRESPASSING
22-0801304 900 SKYLINE DR 2022-08-09 10:20:27.910 ACCIDENT - PROPERTY DAMAGE
22-0801303 20 KINLEY DR 2022-08-09 10:17:17.857 CHECK ON THE WELFARE
22-0801301 129 I40WB 2022-08-09 10:15:31.687 ACCIDENT - PROPERTY DAMAGE
22-0801299 950 E 6TH ST 2022-08-09 10:00:40.357 STALLED VEHICLE
22-0801297 22-0801297 298 HELEN ST 2022-08-09 09:31:06.373 HARASSMENT
22-0801296 22-0801296 810 PARKWAY ST 2022-08-09 09:28:25.590 MISDEMEANOR WARRANT SERVICE
22-0801295 22-0801295 810 PARKWAY ST 2022-08-09 09:27:08.667 MISDEMEANOR WARRANT SERVICE
22-0801291 21 MORNINGSIDE DR 2022-08-09 09:16:29.313 SUPPLEMENT REPORT CALL
22-0801286 1651 HAIRSTON AV 2022-08-09 08:57:12.613 SUSPICIOUS PERSON
22-0801285 1832 SIMMS ST 2022-08-09 08:50:32.270 ALARM
22-0801279 601 E DAVE WARD DR 2022-08-09 07:22:23.360 TRAFFIC PROBLEM-CONTROL
22-0801277 800 MUSEUM RD 2022-08-09 05:14:24.410 ALARM
22-0801275 150 CHAPEL CREEK DR 2022-08-09 01:58:38.717 ALARM
22-0801274 537 2ND AV 2022-08-09 01:33:31.303 CHECK ON THE WELFARE
22-0801273 1155 SKYLINE DR 2022-08-09 01:13:38.850 VEHICLE TOW
22-0801272 680 MUSEUM RD 2022-08-09 01:12:42.363 ALARM
22-0801271 1155 SKYLINE DR 2022-08-09 01:09:33.960 VEHICLE TOW
22-0801270 4095 PRINCE ST 2022-08-09 00:58:49.610 CHECKING PERSON
22-0801269 22-0801269 955 COVINGTON WAY 2022-08-09 00:58:31.180 DISCHARGING FIREWORKS
22-0801267 3250 JW AND PAT BROWN BLVD 2022-08-09 00:38:56.010 ALARM
22-0801266 2300 PRINCE ST 2022-08-09 00:35:41.850 DISCHARGING FIREWORKS
22-0801264 1624 WESTLAKE DR 2022-08-09 00:05:42.293 CHECK ON THE WELFARE
22-0801263 1155 SKYLINE DR 2022-08-09 00:03:45.347 VEHICLE TOW
22-0801262 1155 SKYLINE DR 2022-08-09 00:02:28.400 VEHICLE TOW
22-0801261 1105 PRAIRIE ST 2022-08-08 23:49:19.560 ATTEMPT TO CONTACT
22-0801260 1008 E OAK ST 2022-08-08 23:49:04.820 TRESPASSING
22-0801259 3900 KENNEDY LN 2022-08-08 23:28:11.410 CIVIL STAND BY
22-0801258 2525 WINCHESTER DR 2022-08-08 23:12:02.597 SUSPICIOUS ACTIVITY
22-0801257 22-0801257 2302 COLLEGE AV 2022-08-08 22:29:04.203 FIGHT
22-0801256 1090 SKYLINE DR 2022-08-08 22:17:11.230 FIRE DEPT ASSIST
22-0801254 1506 PRINCE ST 2022-08-08 22:08:44.343 SUPPLEMENT REPORT CALL
22-0801253 22-0801253 1129 GUM ST 2022-08-08 22:04:51.950 TRESPASSING
22-0801252 818 E OAK ST 2022-08-08 21:59:49.973 TRAFFIC PROBLEM-CONTROL
22-0801251 3000 PEBBLE BEACH DR 2022-08-08 21:48:44.397 DISTURBANCE
22-0801245 250 S HOGAN LN 2022-08-08 20:32:59.003 ABANDONED VEHICLE
22-0801240 2701 FRIENDSHIP RD 2022-08-08 20:16:50.123 CHECK ON THE WELFARE
22-0801238 1506 PRINCE ST 2022-08-08 20:04:41.820 CHECK ON THE WELFARE
22-0801237 22-0801237 13 NORTHWOOD DR 2022-08-08 19:53:25.510 FELONY WARRANT SERVICE
22-0801236 1555 EXCHANGE AV 2022-08-08 19:45:33.217 ABUSE
22-0801235 150 E OAK ST 2022-08-08 19:31:44.987 HARASSMENT
22-0801233 22-0801233 13 NORTHWOOD DR 2022-08-08 19:02:15.170 DISTURBANCE
22-0801232 22-0801232 300 BRUCE ST 2022-08-08 19:00:32.770 HARASSMENT
22-0801231 1010 MAIN ST 2022-08-08 18:53:44.363 SUPPLEMENT REPORT CALL
22-0801230 401 2ND ST 2022-08-08 18:41:36.533 FIRE DEPT ASSIST
22-0801227 13 NORTHWOOD DR 2022-08-08 18:17:35.260 ATTEMPT TO CONTACT
22-0801224 22-0801224 620 CHESTNUT ST 2022-08-08 17:51:14.920 FRAUD
22-0801223 22-0801223 1295 EAST GERMAN LN 2022-08-08 17:48:32.517 HARASSMENT
22-0801222 22-0801222 425 E DAVE WARD DR 2022-08-08 17:39:57.350 THEFT OF PROPERTY
22-0801221 22-0801221 475 ROBINS ST 2022-08-08 17:29:18.090 THEFT OF PROPERTY
22-0801219 22-0801219 1105 SKYLINE DR 2022-08-08 17:26:46.210 TRESPASSING
22-0801215 1555 EXCHANGE AV 2022-08-08 16:34:49.127 CIVIL MATTER
22-0801214 475 ROBINS ST 2022-08-08 16:26:56.240 THEFT OF PROPERTY
22-0801213 22-0801213 1340 JOSITA CIR 2022-08-08 16:20:09.980 HARASSING COMMUNICATIONS
22-0801211 22-0801211 1105 SKYLINE DR 2022-08-08 16:13:26.013 TERRORISTIC THREATENING
22-0801210 1825 LUCILLE ST 2022-08-08 16:09:27.027 CHECK ON THE WELFARE
22-0801209 19 BRIDGESTONE DR 2022-08-08 16:06:56.520 RECOVERED PROPERTY
22-0801208 2418 JESSICA DR 2022-08-08 16:02:34.933 ATTEMPT TO CONTACT
22-0801207 1617 WESTLAKE DR 2022-08-08 16:01:46.113 CHECK ON THE WELFARE
22-0801206 1105 SKYLINE DR 2022-08-08 15:52:00.797 THEFT OF PROPERTY
22-0801205 1201 EXCHANGE AV 2022-08-08 15:51:02.667 ACCIDENT - PRIVATE PROPERTY
22-0801204 2225 PRINCE ST 2022-08-08 15:49:49.567 ATTEMPT TO CONTACT
22-0801203 2310 SANDERS ST 2022-08-08 15:45:26.220 CHECK ON THE WELFARE
22-0801201 117 I40EB 2022-08-08 15:37:05.527 AGENCY ASSIST
22-0801200 1622 SCOTT ST 2022-08-08 15:33:08.863 DISTURBANCE
22-0801198 1295 EAST GERMAN LN 2022-08-08 15:13:25.490 CIVIL STAND BY
22-0801196 22-0801196 855 E OAK ST 2022-08-08 15:08:00.490 FRAUD
22-0801195 1008 E OAK ST 2022-08-08 15:02:06.627 TRESPASSING
22-0801194 2840 DAVE WARD DR 2022-08-08 14:46:08.693 ALARM
22-0801193 855 E OAK ST 2022-08-08 14:43:59.583 FRAUD
22-0801191 505 SALEM RD 2022-08-08 14:40:12.903 CHECKING VEHICLE
22-0801189 610 MERRIMAN ST 2022-08-08 14:34:49.527 DOMESTIC DISTURBANCE
22-0801188 801 SOUTH GERMAN LN 2022-08-08 14:08:35.777 TRESPASSING
22-0801185 417 HEREFORD ST 2022-08-08 13:52:21.167 FRAUD
22-0801184 151 SKYLINE DR 2022-08-08 13:39:18.390 STALLED VEHICLE
22-0801182 2418 JESSICA DR 2022-08-08 13:27:12.000 ATTEMPT TO CONTACT
22-0801180 2125 HARKRIDER ST 2022-08-08 13:14:27.537 CIVIL MATTER
22-0801178 349 PIPPINPOST DR 2022-08-08 12:43:27.113 ALARM
22-0801177 3935 LEDBETTER DR 2022-08-08 12:41:20.380 LOST CHILD
22-0801176 1300 E DAVE WARD DR 2022-08-08 12:36:15.043 ACCIDENT - PROPERTY DAMAGE
22-0801175 540 AUDUBON PL 2022-08-08 12:24:44.620 ATTEMPT TO CONTACT
22-0801174 3291 OLD MORRILTON HWY 2022-08-08 12:18:41.310 ATTEMPT TO CONTACT
22-0801173 16 KENSINGTON DR 2022-08-08 12:15:46.547 FRAUD
22-0801171 705 4TH ST 2022-08-08 12:04:05.150 ATTEMPT TO CONTACT
22-0801170 2302 COLLEGE AV 2022-08-08 11:51:53.197 CHECK ON THE WELFARE
22-0801169 22-0801169 1600 CENTENNIAL CLUB DR 2022-08-08 11:42:45.263 BATTERY REPORT
22-0801168 540 AUDUBON PL 2022-08-08 11:32:57.053 CHECK ON THE WELFARE
22-0801166 22-0801166 600 ELSINGER BLVD 2022-08-08 11:27:26.043 FOUND PROPERTY
22-0801165 22-0801165 150 E SIEBENMORGEN RD 2022-08-08 11:25:55.260 ABUSE
22-0801161 22-0801161 1325 CROSSPOINT RD 2022-08-08 11:17:54.070 BREAKING OR ENTERING
22-0801160 1701 HARKRIDER ST 2022-08-08 11:16:35.840 ACCIDENT - HIT AND RUN
22-0801159 455 2ND AV 2022-08-08 11:15:02.227 CHECK ON THE WELFARE
22-0801157 1290 ACUFF LN 2022-08-08 11:09:52.760 SUPPLEMENT REPORT CALL
22-0801156 22-0801156 915 ROBYNMAR CIR 2022-08-08 10:48:14.280 ABUSE
22-0801154 510 3RD AV 2022-08-08 10:32:09.857 CIVIL STAND BY
22-0801151 615 ROBINS ST 2022-08-08 10:25:49.050 ATTEMPT TO CONTACT
22-0801149 540 AUDUBON PL 2022-08-08 10:08:28.787 CHECK ON THE WELFARE
22-0801147 1405 S DONAGHEY AV 2022-08-08 09:50:35.827 CHECK ON THE WELFARE
22-0801146 22-0801146 1225 STRATUS DR 2022-08-08 09:50:26.117 ABUSE
22-0801145 2455 WASHINGTON AV 2022-08-08 09:47:35.980 ACCIDENT - PRIVATE PROPERTY
22-0801143 3615 BUTTERFLY DR 2022-08-08 09:19:31.830 SUSPICIOUS ACTIVITY
22-0801141 400 CENTRAL LANDING BLVD 2022-08-08 09:17:58.853 ACCIDENT - PROPERTY DAMAGE
22-0801140 22-0801140 805 HOGAN LN 2022-08-08 09:14:21.263 BURGLARY
22-0801138 3135 PEBBLE BEACH DR 2022-08-08 08:48:19.623 RECOVERED VEHICLE
22-0801137 510 3RD AV 2022-08-08 08:46:07.853 CIVIL STAND BY
22-0801136 3291 OLD MORRILTON HWY 2022-08-08 08:34:44.187 ATTEMPT TO CONTACT
22-0801135 707 ROBINS ST 2022-08-08 07:55:42.720 ALARM
22-0801133 965 KNIGHTS DR 2022-08-08 07:28:51.247 CITIZEN ASSIST
22-0801128 2780 SUMMERSET DR 2022-08-08 06:12:02.793 BREAKING OR ENTERING
22-0801124 1371 STANLEY RUSS RD 2022-08-08 04:21:41.183 ALARM
22-0801121 810 ELSINGER BLVD 2022-08-08 02:46:12.690 CHECK ON THE WELFARE
22-0801120 801 ELSINGER BLVD 2022-08-08 02:21:42.430 CHECKING VEHICLE
22-0801118 455 2ND AV 2022-08-08 01:32:47.500 SUSPICIOUS PERSON
22-0801117 6195 DAVE WARD DR 2022-08-08 01:30:09.603 CHECKING VEHICLE
22-0801116 2135 ROSEMARY DR 2022-08-08 00:33:15.257 COMPUTER CRIMES
22-0801115 2307 WASHINGTON AV 2022-08-08 00:21:45.123 ALARM
22-0801114 1410 MITCHELL ST 2022-08-08 00:19:28.997 PURSUIT DRILL
22-0801113 22-0801113 1775 OLD MORRILTON HWY 2022-08-07 23:56:03.170 FOUND PROPERTY
22-0801112 5110 APRIL DR 2022-08-07 23:54:15.177 TRESPASSING
22-0801110 1191 STURGIS RD 2022-08-07 23:33:16.327 TRESPASSING
22-0801109 955 SOUTH GERMAN LN 2022-08-07 23:25:48.320 DISTURBANCE
22-0801108 22-0801108 815 E OAK ST 2022-08-07 23:11:33.150 CHECKING VEHICLE
22-0801106 1002 E OAK ST 2022-08-07 22:59:37.537 ATTEMPT TO CONTACT
22-0801105 22-0801105 1900 HOGAN LN 2022-08-07 22:47:23.897 SHOTS FIRED
22-0801103 2301 DONAGHEY AV 2022-08-07 22:12:59.640 STALLED VEHICLE
22-0801102 22-0801102 140 GRAND FALLS 2022-08-07 22:05:37.927 BURGLARY
22-0801101 600 WESTHAVEN DR 2022-08-07 22:03:01.273 CIVIL MATTER
22-0801100 1220 JOSIE REA ST 2022-08-07 21:50:54.477 SHOTS FIRED
22-0801099 831 NUTTERS CHAPEL RD 2022-08-07 21:44:52.090 DOMESTIC DISTURBANCE
22-0801098 1515 BEAN ST 2022-08-07 21:42:22.413 ACCIDENT - HIT AND RUN
22-0801096 511 OAK ST 2022-08-07 21:10:13.650 DISTURBANCE
22-0801095 22-0801095 3200 PEBBLE BEACH DR 2022-08-07 21:09:52.637 MISSING PERSON
22-0801094 22-0801094 1836 BRUCE ST 2022-08-07 20:56:52.117 ACCIDENT - PERSONAL INJURY
22-0801088 22-0801088 2535 DONAGHEY AV 2022-08-07 20:18:54.637 TRESPASSING
22-0801086 22-0801086 140 GRAND FALLS 2022-08-07 20:12:06.637 BURGLARY
22-0801084 9 DEERWOOD DR 2022-08-07 20:07:22.920 SUPPLEMENT REPORT CALL
22-0801082 22-0801082 1795 BILL LUCY DR 2022-08-07 19:38:36.840 UNKNOWN TROUBLE
22-0801081 2290 GETTY DR 2022-08-07 19:30:04.447 ALARM - HOLD UP or PANIC
22-0801079 3135 PEBBLE BEACH DR 2022-08-07 18:41:58.220 SUPPLEMENT REPORT CALL
22-0801078 1506 PRINCE ST 2022-08-07 18:36:20.500 TRESPASSING
22-0801077 855 S SALEM RD 2022-08-07 18:29:56.570 LOUD NOISE-MUSIC
22-0801076 900 SKYLINE DR 2022-08-07 18:28:46.307 STALLED VEHICLE
22-0801073 1602 COLLEGE AV 2022-08-07 17:53:39.967 DOMESTIC DISTURBANCE
22-0801072 1701 DAVE WARD DR 2022-08-07 17:38:45.660 CHECK ON THE WELFARE
22-0801071 3240 STERMER RD 2022-08-07 17:19:46.923 SUSPICIOUS PERSON
22-0801070 22-0801070 475 ROBINS ST 2022-08-07 17:03:30.587 DOMESTIC DISTURBANCE
22-0801069 2117 ADA AV 2022-08-07 16:56:57.197 ALARM
22-0801068 110 NORTHVIEW DR 2022-08-07 16:56:21.150 SUSPICIOUS PERSON
22-0801067 555 COMMERCE RD 2022-08-07 16:46:14.390 ALARM
22-0801065 2100 DAVE WARD DR 2022-08-07 16:23:22.003 TRAFFIC PROBLEM-CONTROL
22-0801064 1425 HATHAWAY DR 2022-08-07 16:13:17.673 ALARM
22-0801062 22-0801062 310 FAIRWAY DR 2022-08-07 15:53:21.633 CRIMINAL MISCHIEF
22-0801061 1620 DUKE ST 2022-08-07 15:50:00.187 SUPPLEMENT REPORT CALL
22-0801059 1105 PRAIRIE ST 2022-08-07 15:26:20.633 ATTEMPT TO CONTACT
22-0801058 1425 HATHAWAY DR 2022-08-07 15:21:39.883 ALARM
22-0801055 429 HELEN ST 2022-08-07 14:27:20.153 TERRORISTIC THREATENING
22-0801054 2500 COLLEGE AV 2022-08-07 14:04:41.187 RECKLESS DRIVER
22-0801053 22-0801053 2670 DONAGHEY AV 2022-08-07 14:02:20.020 FRAUD
22-0801052 220 S CENTER ST 2022-08-07 13:34:57.383 TRESPASSING
22-0801051 1310 DOGWOOD TRL 2022-08-07 13:34:14.010 ALARM
22-0801050 200 E DAVE WARD DR 2022-08-07 13:03:43.983 ACCIDENT - PROPERTY DAMAGE
22-0801049 22-0801049 2525 DONAGHEY AV 2022-08-07 13:00:24.023 SUSPICIOUS PERSON
22-0801048 2 COVEWOOD DR 2022-08-07 12:55:22.620 SUSPICIOUS VEHICLE
22-0801047 1835 OTT MEMORIAL BLVD 2022-08-07 12:28:59.903 DOMESTIC DISTURBANCE
22-0801046 22-0801046 1111 E OAK ST 2022-08-07 12:27:02.900 THEFT OF PROPERTY
22-0801045 15 ROSEWOOD DR 2022-08-07 12:25:32.243 FOUND PROPERTY
22-0801044 3050 SASSY RD 2022-08-07 12:09:30.523 ALARM
22-0801043 763 ELSINGER BLVD 2022-08-07 11:41:51.360 ALARM
22-0801041 1260 CHABLIS LN 2022-08-07 11:39:02.133 CIVIL STAND BY
22-0801040 526 DAVIS ST 2022-08-07 11:24:32.893 DOMESTIC DISTURBANCE
22-0801036 1 ROSEWOOD DR 2022-08-07 10:37:59.090 ATTEMPT TO CONTACT
22-0801035 5 ROSEWOOD DR 2022-08-07 10:33:19.793 ATTEMPT TO CONTACT
22-0801033 815 E OAK ST 2022-08-07 10:08:09.857 CHECK ON THE WELFARE
22-0801032 1155 SKYLINE DR 2022-08-07 09:54:43.447 ACCIDENT - PROPERTY DAMAGE
22-0801031 2270 MEADOWLAKE RD 2022-08-07 09:51:05.050 AGENCY ASSIST
22-0801030 22-0801030 504 INGRAM ST 2022-08-07 09:50:04.140 ATTEMPT TO CONTACT
22-0801029 22-0801029 3255 CHRYSLER CV 2022-08-07 09:36:21.887 BREAKING OR ENTERING
22-0801028 22-0801028 3225 CHRYSLER CV 2022-08-07 09:34:59.547 BREAKING OR ENTERING
22-0801027 22-0801027 3225 CHRYSLER CV 2022-08-07 09:34:57.553 BREAKING OR ENTERING
22-0801024 22-0801024 9 DEERWOOD DR 2022-08-07 08:15:41.553 FOUND PROPERTY
22-0801023 1775 OLD MORRILTON HWY 2022-08-07 08:06:53.623 HARASSMENT
22-0801022 22-0801022 1775 OLD MORRILTON HWY 2022-08-07 07:02:00.830 FRAUD
22-0801017 401 2ND ST 2022-08-07 04:50:26.527 BURGLARY
22-0801016 2022-08-07 04:32:20.320 RECOVERED VEHICLE
22-0801015 1420 ARAPAHO TRL 2022-08-07 04:27:30.867 LOUD NOISE-MUSIC
22-0801014 500 SOUTH GERMAN LN 2022-08-07 04:27:05.997 ATTEMPT TO CONTACT
22-0801013 2150 E OAK ST 2022-08-07 04:19:37.010 CHECKING VEHICLE
22-0801012 2350 SANDERS ST 2022-08-07 04:09:53.043 CHECKING VEHICLE
22-0801011 1962 BRUCE ST 2022-08-07 04:05:39.090 FIGHT
22-0801009 200 GARLAND ST 2022-08-07 03:16:10.290 LOUD NOISE-MUSIC
22-0801007 20 REBECCA LN 2022-08-07 02:58:24.160 TRESPASSING
22-0801006 1000 MORNINGSIDE DR 2022-08-07 02:08:32.330 DISTURBANCE
22-0801002 1620 MIDDLE RD 2022-08-07 01:10:00.500 VEHICLE TOW
22-0801001 375 E OAK ST 2022-08-07 01:06:43.627 CHECKING PERSON
Call Number Case Number Address Call Time Incident Type

General Contacts

POLICE HEADQUARTERS
1105 Prairie Street
Conway, AR 72032

Conway Police Department


  911 (EMERGENCIES ONLY)

  501.450.6120 (non-emergency)

   

City of Conway

We, the members of the Conway Police Department, are committed to protecting and serving the citizens of Conway, Arkansas. That is our highest calling, as we pledge to join hands with others in carrying out our sworn duty to uphold the law.

Chief William Tapley

Latest Tweets